Time,TemperatureF,DewpointF,PressureIn,WindDirection,WindDirectionDegrees,WindSpeedMPH,WindSpeedGustMPH,Humidity,HourlyPrecipIn,Conditions,Clouds,dailyrainin,SoftwareType,DateUTC
2013-05-20 00:00:00,57.6,46.7,28.41,NW,315,4.7,4.7,67,0.00,CLR,,0.00,WeatherDisplay:10.37,2013-05-20 05:00:00,
2013-05-20 00:01:00,57.4,46.5,28.41,West,270,13.8,13.8,67,0.00,CLR,,0.00,WeatherDisplay:10.37,2013-05-20 05:01:00,
2013-05-20 00:03:00,57.2,46.7,28.41,North,0,10.0,10.0,68,0.00,CLR,,0.00,WeatherDisplay:10.37,2013-05-20 05:03:00,
2013-05-20 00:04:00,57.0,46.9,28.41,NW,315,10.4,10.4,69,0.00,CLR,,0.00,WeatherDisplay:10.37,2013-05-20 05:04:00,
2013-05-20 00:05:00,57.0,46.9,28.41,WNW,292,6.9,6.9,69,0.00,CLR,,0.00,WeatherDisplay:10.37,2013-05-20 05:05:00,
2013-05-20 00:06:00,56.8,46.8,28.41,North,0,6.9,6.9,69,0.00,CLR,,0.00,WeatherDisplay:10.37,2013-05-20 05:06:00,
2013-05-20 00:07:00,56.8,47.2,28.41,NW,315,6.9,6.9,70,0.00,CLR,,0.00,WeatherDisplay:10.37,2013-05-20 05:07:00,
2013-05-20 00:09:00,56.5,46.8,28.41,NNW,338,6.2,6.2,70,0.00,CLR,,0.00,WeatherDisplay:10.37,2013-05-20 05:09:00,
2013-05-20 00:10:00,56.5,46.8,28.38,WNW,292,8.1,8.1,70,0.00,CLR,,0.00,WeatherDisplay:10.37,2013-05-20 05:10:00,
2013-05-20 00:12:00,56.5,46.8,28.38,NNW,338,6.9,6.9,70,0.00,CLR,,0.00,WeatherDisplay:10.37,2013-05-20 05:12:00,
2013-05-20 00:13:00,56.5,46.8,28.38,North,0,6.9,6.9,70,0.00,CLR,,0.00,WeatherDisplay:10.37,2013-05-20 05:13:00,
2013-05-20 00:14:00,56.3,47.0,28.38,NW,315,4.9,4.9,71,0.00,CLR,,0.00,WeatherDisplay:10.37,2013-05-20 05:14:00,
2013-05-20 00:15:00,56.3,47.0,28.38,NW,315,5.8,5.8,71,0.00,CLR,,0.00,WeatherDisplay:10.37,2013-05-20 05:15:00,
2013-05-20 00:16:00,56.3,47.0,28.38,NW,315,5.8,5.8,71,0.00,CLR,,0.00,WeatherDisplay:10.37,2013-05-20 05:16:00,
2013-05-20 00:17:00,56.1,46.8,28.38,NW,315,3.5,3.5,71,0.00,CLR,,0.00,WeatherDisplay:10.37,2013-05-20 05:17:00,
2013-05-20 00:18:00,56.1,46.8,28.38,North,0,7.4,7.4,71,0.00,CLR,,0.00,WeatherDisplay:10.37,2013-05-20 05:18:00,
2013-05-20 00:19:00,56.1,46.8,28.38,NNW,338,6.9,6.9,71,0.00,CLR,,0.00,WeatherDisplay:10.37,2013-05-20 05:19:00,
2013-05-20 00:20:00,55.9,46.7,28.38,West,270,3.5,3.5,71,0.00,CLR,,0.00,WeatherDisplay:10.37,2013-05-20 05:20:00,
2013-05-20 00:21:00,55.9,46.7,28.38,NW,315,2.6,2.6,71,0.00,CLR,,0.00,WeatherDisplay:10.37,2013-05-20 05:21:00,
2013-05-20 00:22:00,55.9,47.0,28.38,WNW,292,4.6,4.6,72,0.00,CLR,,0.00,WeatherDisplay:10.37,2013-05-20 05:22:00,
2013-05-20 00:24:00,56.1,46.8,28.41,West,270,3.5,3.5,71,0.00,CLR,,0.00,WeatherDisplay:10.37,2013-05-20 05:24:00,
2013-05-20 00:25:00,56.1,46.8,28.41,SW,225,3.5,3.5,71,0.00,CLR,,0.00,WeatherDisplay:10.37,2013-05-20 05:25:00,
2013-05-20 00:26:00,56.1,46.8,28.41,SSE,158,2.3,2.3,71,0.00,CLR,,0.00,WeatherDisplay:10.37,2013-05-20 05:26:00,
2013-05-20 00:28:00,56.1,46.8,28.41,SSE,158,2.3,2.3,71,0.00,CLR,,0.00,WeatherDisplay:10.37,2013-05-20 05:28:00,
2013-05-20 00:29:00,56.1,46.8,28.41,West,270,2.3,0.0,71,0.00,CLR,,0.00,WeatherDisplay:10.37,2013-05-20 05:29:00,
2013-05-20 00:30:00,56.1,46.5,28.41,West,270,0.0,0.0,70,0.00,CLR,,0.00,WeatherDisplay:10.37,2013-05-20 05:30:00,
2013-05-20 00:31:00,56.1,46.5,28.41,WNW,292,0.0,0.0,70,0.00,CLR,,0.00,WeatherDisplay:10.37,2013-05-20 05:31:00,
2013-05-20 00:32:00,56.1,46.5,28.41,WNW,292,0.0,0.0,70,0.00,CLR,,0.00,WeatherDisplay:10.37,2013-05-20 05:32:00,
2013-05-20 00:33:00,55.9,46.3,28.41,NW,315,0.0,0.0,70,0.00,CLR,,0.00,WeatherDisplay:10.37,2013-05-20 05:33:00,
2013-05-20 00:35:00,55.9,46.7,28.41,NNW,338,3.1,3.1,71,0.00,CLR,,0.00,WeatherDisplay:10.37,2013-05-20 05:35:00,
2013-05-20 00:37:00,55.9,46.7,28.41,WNW,292,4.6,4.6,71,0.00,CLR,,0.00,WeatherDisplay:10.37,2013-05-20 05:37:00,
2013-05-20 00:38:00,55.9,46.7,28.41,SW,225,2.3,0.0,71,0.00,CLR,,0.00,WeatherDisplay:10.37,2013-05-20 05:38:00,
2013-05-20 00:40:00,55.9,46.7,28.41,SW,225,0.0,0.0,71,0.00,CLR,,0.00,WeatherDisplay:10.37,2013-05-20 05:40:00,
2013-05-20 00:42:00,55.9,46.7,28.41,NNW,338,2.2,0.0,71,0.00,CLR,,0.00,WeatherDisplay:10.37,2013-05-20 05:42:00,
2013-05-20 00:43:00,55.9,46.7,28.41,NNW,338,2.3,2.3,71,0.00,CLR,,0.00,WeatherDisplay:10.37,2013-05-20 05:43:00,
2013-05-20 00:45:00,55.9,46.7,28.41,NNW,338,1.2,0.0,71,0.00,CLR,,0.00,WeatherDisplay:10.37,2013-05-20 05:45:00,
2013-05-20 00:47:00,55.8,46.9,28.41,SSE,158,3.6,3.6,72,0.00,CLR,,0.00,WeatherDisplay:10.37,2013-05-20 05:47:00,
2013-05-20 00:48:00,55.9,47.0,28.41,SSE,158,4.6,4.6,72,0.00,CLR,,0.00,WeatherDisplay:10.37,2013-05-20 05:48:00,
2013-05-20 00:50:00,55.9,47.8,28.41,South,180,3.5,3.5,74,0.00,CLR,,0.00,WeatherDisplay:10.37,2013-05-20 05:50:00,
2013-05-20 00:52:00,55.9,47.8,28.41,SSE,158,2.3,2.3,74,0.00,CLR,,0.00,WeatherDisplay:10.37,2013-05-20 05:52:00,
2013-05-20 00:53:00,55.9,47.8,28.41,South,180,3.5,3.5,74,0.00,CLR,,0.00,WeatherDisplay:10.37,2013-05-20 05:53:00,
2013-05-20 00:54:00,55.8,48.0,28.41,SSW,202,5.8,5.8,75,0.00,CLR,,0.00,WeatherDisplay:10.37,2013-05-20 05:54:00,
2013-05-20 00:55:00,55.8,48.0,28.44,SSW,202,5.8,5.8,75,0.00,CLR,,0.00,WeatherDisplay:10.37,2013-05-20 05:55:00,
2013-05-20 00:57:00,55.6,48.1,28.44,ESE,112,1.6,0.0,76,0.01,RA,,0.01,WeatherDisplay:10.37,2013-05-20 05:57:00,
2013-05-20 00:58:00,55.6,48.5,28.44,West,270,1.6,0.0,77,0.01,RA,,0.01,WeatherDisplay:10.37,2013-05-20 05:58:00,
2013-05-20 00:59:00,55.0,48.6,28.44,South,180,4.5,4.5,79,0.02,RA,,0.02,WeatherDisplay:10.37,2013-05-20 05:59:00,
2013-05-20 01:01:00,54.9,48.8,28.44,SSW,202,5.4,5.4,80,0.02,RA,,0.02,WeatherDisplay:10.37,2013-05-20 06:01:00,
2013-05-20 01:03:00,54.3,49.6,28.44,WNW,292,10.4,10.4,84,0.06,RA,,0.06,WeatherDisplay:10.37,2013-05-20 06:03:00,
2013-05-20 01:04:00,54.0,49.6,28.44,WSW,248,6.9,6.9,85,0.13,RA,,0.16,WeatherDisplay:10.37,2013-05-20 06:04:00,
2013-05-20 01:05:00,54.1,49.3,28.44,SW,234,5.0,10.0,84,0.03,RA,,0.16,WeatherDisplay:10.37,2013-05-20 06:05:00,
2013-05-20 01:07:00,53.6,50.1,28.44,SSW,202,8.1,8.1,88,0.23,RA,,0.28,WeatherDisplay:10.37,2013-05-20 06:07:00,
2013-05-20 01:08:00,53.6,50.4,28.44,WSW,248,11.5,11.5,89,0.28,RA,,0.28,WeatherDisplay:10.37,2013-05-20 06:08:00,
2013-05-20 01:09:00,53.4,50.6,28.44,West,270,6.9,6.9,90,0.29,RA,,0.29,WeatherDisplay:10.37,2013-05-20 06:09:00,
2013-05-20 01:10:00,53.2,50.4,28.53,SSW,202,4.6,4.6,90,0.29,RA,,0.29,WeatherDisplay:10.37,2013-05-20 06:10:00,
2013-05-20 01:11:00,53.2,50.4,28.53,North,0,4.6,4.6,90,0.30,RA,,0.30,WeatherDisplay:10.37,2013-05-20 06:11:00,
2013-05-20 01:12:00,53.2,50.7,28.53,SW,225,4.9,4.9,91,0.31,RA,,0.31,WeatherDisplay:10.37,2013-05-20 06:12:00,
2013-05-20 01:13:00,53.2,50.7,28.53,SW,225,6.9,6.9,91,0.31,RA,,0.33,WeatherDisplay:10.37,2013-05-20 06:13:00,
2013-05-20 01:14:00,53.1,50.5,28.53,WSW,248,10.4,10.4,91,0.33,RA,,0.33,WeatherDisplay:10.37,2013-05-20 06:14:00,
2013-05-20 01:15:00,53.1,50.5,28.53,WNW,292,10.4,10.4,91,0.34,RA,,0.34,WeatherDisplay:10.37,2013-05-20 06:15:00,
2013-05-20 01:17:00,53.1,50.8,28.53,SW,225,3.5,3.5,92,0.34,RA,,0.34,WeatherDisplay:10.37,2013-05-20 06:17:00,
2013-05-20 01:18:00,53.1,50.8,28.53,SW,225,3.5,3.5,92,0.35,RA,,0.35,WeatherDisplay:10.37,2013-05-20 06:18:00,
2013-05-20 01:20:00,52.9,50.6,28.53,South,180,1.2,2.0,92,0.35,RA,,0.35,WeatherDisplay:10.37,2013-05-20 06:20:00,
2013-05-20 01:21:00,52.9,50.6,28.53,West,270,1.2,1.2,92,0.35,RA,,0.35,WeatherDisplay:10.37,2013-05-20 06:21:00,
2013-05-20 01:22:00,52.9,50.6,28.53,SSW,202,3.5,3.5,92,0.35,RA,,0.36,WeatherDisplay:10.37,2013-05-20 06:22:00,
2013-05-20 01:23:00,52.9,50.6,28.53,SE,135,3.5,0.0,92,0.36,RA,,0.36,WeatherDisplay:10.37,2013-05-20 06:23:00,
2013-05-20 01:24:00,52.9,50.6,28.50,WSW,248,1.2,0.0,92,0.36,RA,,0.37,WeatherDisplay:10.37,2013-05-20 06:24:00,
2013-05-20 01:25:00,52.9,50.6,28.50,West,270,1.2,0.0,92,0.37,RA,,0.37,WeatherDisplay:10.37,2013-05-20 06:25:00,
2013-05-20 01:26:00,52.9,50.6,28.50,West,270,3.5,3.5,92,0.37,RA,,0.37,WeatherDisplay:10.37,2013-05-20 06:26:00,
2013-05-20 01:27:00,52.9,50.6,28.50,WSW,248,2.3,2.3,92,0.37,RA,,0.38,WeatherDisplay:10.37,2013-05-20 06:27:00,
2013-05-20 01:29:00,52.7,50.4,28.50,SSE,158,1.2,0.0,92,0.38,RA,,0.38,WeatherDisplay:10.37,2013-05-20 06:29:00,
2013-05-20 01:31:00,52.7,50.4,28.50,SE,135,0.0,0.0,92,0.40,RA,,0.40,WeatherDisplay:10.37,2013-05-20 06:31:00,
2013-05-20 01:32:00,52.7,50.4,28.50,SE,135,0.0,0.0,92,0.40,RA,,0.40,WeatherDisplay:10.37,2013-05-20 06:32:00,
2013-05-20 01:33:00,52.7,50.4,28.50,NNE,22,0.0,0.0,92,0.40,RA,,0.41,WeatherDisplay:10.37,2013-05-20 06:33:00,
2013-05-20 01:34:00,52.7,50.4,28.50,NNE,22,0.0,0.0,92,0.41,RA,,0.41,WeatherDisplay:10.37,2013-05-20 06:34:00,
2013-05-20 01:36:00,52.7,50.4,28.50,NNE,22,1.2,1.2,92,0.42,RA,,0.42,WeatherDisplay:10.37,2013-05-20 06:36:00,
2013-05-20 01:37:00,52.5,50.3,28.50,NNE,22,2.9,0.0,92,0.42,RA,,0.42,WeatherDisplay:10.37,2013-05-20 06:37:00,
2013-05-20 01:38:00,52.7,50.4,28.50,North,0,2.4,2.4,92,0.43,RA,,0.43,WeatherDisplay:10.37,2013-05-20 06:38:00,
2013-05-20 01:39:00,52.5,50.6,28.50,North,0,2.3,2.4,93,0.43,RA,,0.43,WeatherDisplay:10.37,2013-05-20 06:39:00,
2013-05-20 01:41:00,52.7,50.7,28.44,NNE,22,2.9,2.9,93,0.43,RA,,0.43,WeatherDisplay:10.37,2013-05-20 06:41:00,
2013-05-20 01:43:00,52.5,50.6,28.44,NE,45,3.5,3.5,93,0.44,RA,,0.44,WeatherDisplay:10.37,2013-05-20 06:43:00,
2013-05-20 01:44:00,52.5,50.6,28.44,NW,315,3.5,3.5,93,0.44,RA,,0.44,WeatherDisplay:10.37,2013-05-20 06:44:00,
2013-05-20 01:47:00,52.3,50.4,28.44,ENE,68,1.4,0.0,93,0.44,RA,,0.44,WeatherDisplay:10.37,2013-05-20 06:47:00,
2013-05-20 01:48:00,52.3,50.4,28.44,NE,45,3.5,0.0,93,0.44,RA,,0.44,WeatherDisplay:10.37,2013-05-20 06:48:00,
2013-05-20 01:49:00,52.3,50.7,28.44,NNE,22,3.5,3.5,94,0.44,RA,,0.44,WeatherDisplay:10.37,2013-05-20 06:49:00,
2013-05-20 01:52:00,52.3,50.7,28.44,ENE,68,0.0,0.0,94,0.44,RA,,0.44,WeatherDisplay:10.37,2013-05-20 06:52:00,
2013-05-20 01:53:00,52.3,50.7,28.44,ENE,68,0.0,0.0,94,0.44,,,0.44,WeatherDisplay:10.37,2013-05-20 06:53:00,
2013-05-20 01:54:00,52.3,50.7,28.44,ENE,68,1.4,0.0,94,0.44,,,0.44,WeatherDisplay:10.37,2013-05-20 06:54:00,
2013-05-20 01:55:00,52.3,50.7,28.43,NE,55,0.0,4.0,94,0.00,CLR,,0.44,WeatherDisplay:10.37,2013-05-20 06:55:00,
2013-05-20 01:58:00,52.2,50.8,28.41,NE,45,3.5,3.5,95,0.43,CLR,,0.44,WeatherDisplay:10.37,2013-05-20 06:58:00,
2013-05-20 01:59:00,52.2,50.8,28.41,ENE,68,2.3,0.0,95,0.42,CLR,,0.45,WeatherDisplay:10.37,2013-05-20 06:59:00,
2013-05-20 02:00:00,52.2,50.8,28.41,ENE,68,0.0,4.0,95,0.01,RA,,0.45,WeatherDisplay:10.37,2013-05-20 07:00:00,
2013-05-20 02:03:00,52.2,51.1,28.41,SSE,158,2.3,2.3,96,0.39,RA,,0.45,WeatherDisplay:10.37,2013-05-20 07:03:00,
2013-05-20 02:04:00,52.2,51.1,28.41,SSE,158,2.4,2.4,96,0.39,RA,,0.45,WeatherDisplay:10.37,2013-05-20 07:04:00,
2013-05-20 02:05:00,52.2,51.1,28.41,ESE,107,2.0,3.0,96,0.00,RA,,0.45,WeatherDisplay:10.37,2013-05-20 07:05:00,
2013-05-20 02:06:00,52.3,51.2,28.41,SW,225,2.3,2.3,96,0.26,RA,,0.45,WeatherDisplay:10.37,2013-05-20 07:06:00,
2013-05-20 02:09:00,52.2,51.3,28.41,SE,135,2.3,0.0,97,0.16,RA,,0.45,WeatherDisplay:10.37,2013-05-20 07:09:00,
2013-05-20 02:10:00,52.2,51.3,28.41,SW,225,2.3,2.3,97,0.16,,,0.45,WeatherDisplay:10.37,2013-05-20 07:10:00,
2013-05-20 02:12:00,52.2,51.3,28.41,SSE,158,2.2,2.2,97,0.14,CLR,,0.45,WeatherDisplay:10.37,2013-05-20 07:12:00,
2013-05-20 02:14:00,52.2,51.3,28.41,SSE,158,1.2,1.2,97,0.13,CLR,,0.45,WeatherDisplay:10.37,2013-05-20 07:14:00,
2013-05-20 02:15:00,52.2,51.3,28.41,NE,45,0.0,0.0,97,0.12,CLR,,0.45,WeatherDisplay:10.37,2013-05-20 07:15:00,
2013-05-20 02:16:00,52.2,51.3,28.41,ENE,68,0.9,0.0,97,0.12,CLR,,0.45,WeatherDisplay:10.37,2013-05-20 07:16:00,
2013-05-20 02:17:00,52.2,51.3,28.41,ENE,68,1.2,0.0,97,0.12,CLR,,0.45,WeatherDisplay:10.37,2013-05-20 07:17:00,
2013-05-20 02:19:00,52.2,51.3,28.41,East,90,2.3,2.3,97,0.11,CLR,,0.45,WeatherDisplay:10.37,2013-05-20 07:19:00,
2013-05-20 02:20:00,52.2,51.3,28.41,ESE,110,1.0,3.0,97,0.00,CLR,,0.45,WeatherDisplay:10.37,2013-05-20 07:20:00,
2013-05-20 02:21:00,52.2,51.3,28.41,East,90,2.3,2.3,97,0.11,CLR,,0.45,WeatherDisplay:10.37,2013-05-20 07:21:00,
2013-05-20 02:23:00,52.0,51.4,28.41,ENE,68,2.4,2.4,98,0.09,CLR,,0.45,WeatherDisplay:10.37,2013-05-20 07:23:00,
2013-05-20 02:25:00,52.0,51.4,28.40,East,81,1.0,3.0,98,0.00,CLR,,0.45,WeatherDisplay:10.37,2013-05-20 07:25:00,
2013-05-20 02:26:00,52.0,51.4,28.38,SE,135,0.9,0.0,98,0.08,CLR,,0.45,WeatherDisplay:10.37,2013-05-20 07:26:00,
2013-05-20 02:28:00,52.2,51.6,28.38,SE,135,4.6,4.6,98,0.07,CLR,,0.45,WeatherDisplay:10.37,2013-05-20 07:28:00,
2013-05-20 02:30:00,52.2,51.6,28.38,SSE,158,5.8,5.8,98,0.06,CLR,,0.45,WeatherDisplay:10.37,2013-05-20 07:30:00,
2013-05-20 02:31:00,52.2,51.6,28.38,SSE,158,5.8,5.8,98,0.06,CLR,,0.45,WeatherDisplay:10.37,2013-05-20 07:31:00,
2013-05-20 02:34:00,52.2,51.6,28.38,ESE,112,5.8,5.8,98,0.05,CLR,,0.45,WeatherDisplay:10.37,2013-05-20 07:34:00,
2013-05-20 02:35:00,52.2,51.6,28.38,SSE,158,5.8,5.8,98,0.05,CLR,,0.45,WeatherDisplay:10.37,2013-05-20 07:35:00,
2013-05-20 02:36:00,52.2,51.6,28.38,SSE,158,3.5,3.6,98,0.04,CLR,,0.45,WeatherDisplay:10.37,2013-05-20 07:36:00,
2013-05-20 02:37:00,52.2,51.6,28.38,SSE,158,5.8,5.8,98,0.04,CLR,,0.45,WeatherDisplay:10.37,2013-05-20 07:37:00,
2013-05-20 02:39:00,52.2,51.6,28.38,SE,135,3.5,3.5,98,0.02,CLR,,0.45,WeatherDisplay:10.37,2013-05-20 07:39:00,
2013-05-20 02:41:00,52.2,51.6,28.41,East,90,3.8,3.8,98,0.02,CLR,,0.45,WeatherDisplay:10.37,2013-05-20 07:41:00,
2013-05-20 02:42:00,52.2,51.6,28.41,ESE,112,3.6,3.6,98,0.02,CLR,,0.45,WeatherDisplay:10.37,2013-05-20 07:42:00,
2013-05-20 02:44:00,52.2,51.6,28.41,SE,135,4.6,4.6,98,0.01,CLR,,0.45,WeatherDisplay:10.37,2013-05-20 07:44:00,
2013-05-20 02:46:00,52.2,51.6,28.41,East,90,3.5,3.5,98,0.01,CLR,,0.45,WeatherDisplay:10.37,2013-05-20 07:46:00,
2013-05-20 02:47:00,52.2,51.6,28.41,SSE,158,3.5,3.5,98,0.01,CLR,,0.45,WeatherDisplay:10.37,2013-05-20 07:47:00,
2013-05-20 02:48:00,52.2,51.6,28.41,SE,135,3.5,3.5,98,0.01,CLR,,0.45,WeatherDisplay:10.37,2013-05-20 07:48:00,
2013-05-20 02:49:00,52.2,51.6,28.41,SSE,158,3.5,3.5,98,0.01,CLR,,0.45,WeatherDisplay:10.37,2013-05-20 07:49:00,
2013-05-20 02:51:00,52.2,51.6,28.41,SSE,158,5.8,5.8,98,0.01,CLR,,0.45,WeatherDisplay:10.37,2013-05-20 07:51:00,
2013-05-20 02:53:00,52.3,51.8,28.41,South,180,7.1,7.1,98,0.01,CLR,,0.45,WeatherDisplay:10.37,2013-05-20 07:53:00,
2013-05-20 02:54:00,52.3,51.8,28.41,SSE,158,6.9,6.9,98,0.01,CLR,,0.45,WeatherDisplay:10.37,2013-05-20 07:54:00,
2013-05-20 02:57:00,52.2,51.6,28.41,SSE,158,8.1,8.1,98,0.01,CLR,,0.45,WeatherDisplay:10.37,2013-05-20 07:57:00,
2013-05-20 02:58:00,52.2,51.6,28.41,SSE,158,5.8,5.8,98,0.01,CLR,,0.45,WeatherDisplay:10.37,2013-05-20 07:58:00,
2013-05-20 02:59:00,52.2,51.6,28.41,SE,135,4.6,4.6,98,0.01,CLR,,0.45,WeatherDisplay:10.37,2013-05-20 07:59:00,
2013-05-20 03:00:00,52.2,51.7,28.41,SE,140,5.0,8.0,98,0.00,CLR,,0.45,WeatherDisplay:10.37,2013-05-20 08:00:00,
2013-05-20 03:02:00,52.2,51.6,28.41,ESE,112,4.6,4.6,98,0.00,CLR,,0.45,WeatherDisplay:10.37,2013-05-20 08:02:00,
2013-05-20 03:03:00,52.3,51.8,28.41,SE,135,5.8,5.8,98,0.00,CLR,,0.45,WeatherDisplay:10.37,2013-05-20 08:03:00,
2013-05-20 03:05:00,52.2,51.6,28.41,South,180,7.1,7.1,98,0.00,CLR,,0.45,WeatherDisplay:10.37,2013-05-20 08:05:00,
2013-05-20 03:08:00,52.3,51.8,28.41,SSE,158,6.9,6.9,98,0.00,CLR,,0.45,WeatherDisplay:10.37,2013-05-20 08:08:00,
2013-05-20 03:09:00,52.2,51.6,28.41,SSE,158,8.1,8.1,98,0.00,CLR,,0.45,WeatherDisplay:10.37,2013-05-20 08:09:00,
2013-05-20 03:10:00,52.2,51.6,28.41,SSE,158,5.8,5.8,98,0.00,CLR,,0.45,WeatherDisplay:10.37,2013-05-20 08:10:00,
2013-05-20 03:11:00,52.3,51.8,28.41,WSW,248,8.1,8.1,98,0.00,CLR,,0.45,WeatherDisplay:10.37,2013-05-20 08:11:00,
2013-05-20 03:13:00,52.3,51.8,28.41,SSE,158,7.4,7.4,98,0.00,CLR,,0.45,WeatherDisplay:10.37,2013-05-20 08:13:00,
2013-05-20 03:14:00,52.3,51.8,28.41,SSW,202,6.9,6.9,98,0.00,CLR,,0.45,WeatherDisplay:10.37,2013-05-20 08:14:00,
2013-05-20 03:15:00,52.2,51.6,28.41,SE,135,8.1,8.1,98,0.00,CLR,,0.45,WeatherDisplay:10.37,2013-05-20 08:15:00,
2013-05-20 03:16:00,52.2,51.6,28.41,East,90,8.1,8.1,98,0.00,CLR,,0.45,WeatherDisplay:10.37,2013-05-20 08:16:00,
2013-05-20 03:18:00,52.3,51.8,28.41,SSE,158,5.9,5.9,98,0.00,CLR,,0.45,WeatherDisplay:10.37,2013-05-20 08:18:00,
2013-05-20 03:19:00,52.3,51.8,28.41,SSE,158,5.8,5.8,98,0.00,CLR,,0.45,WeatherDisplay:10.37,2013-05-20 08:19:00,
2013-05-20 03:20:00,52.3,51.8,28.41,SSE,152,3.0,8.0,98,0.00,CLR,,0.45,WeatherDisplay:10.37,2013-05-20 08:20:00,
2013-05-20 03:21:00,52.3,51.8,28.41,SSE,158,12.7,12.7,98,0.00,CLR,,0.45,WeatherDisplay:10.37,2013-05-20 08:21:00,
2013-05-20 03:23:00,52.2,51.6,28.41,SE,135,8.1,8.1,98,0.00,CLR,,0.45,WeatherDisplay:10.37,2013-05-20 08:23:00,
2013-05-20 03:24:00,52.2,51.6,28.41,SE,135,8.1,8.1,98,0.00,CLR,,0.45,WeatherDisplay:10.37,2013-05-20 08:24:00,
2013-05-20 03:25:00,52.2,51.6,28.41,SSE,149,6.0,13.0,98,0.00,CLR,,0.45,WeatherDisplay:10.37,2013-05-20 08:25:00,
2013-05-20 03:27:00,52.2,51.6,28.41,SE,135,7.8,7.8,98,0.00,CLR,,0.45,WeatherDisplay:10.37,2013-05-20 08:27:00,
2013-05-20 03:29:00,52.3,51.8,28.41,SSE,158,8.1,8.1,98,0.00,CLR,,0.45,WeatherDisplay:10.37,2013-05-20 08:29:00,
2013-05-20 03:30:00,52.3,51.8,28.41,SSE,152,6.0,9.0,98,0.00,CLR,,0.45,WeatherDisplay:10.37,2013-05-20 08:30:00,
2013-05-20 03:32:00,52.2,51.6,28.41,ESE,112,6.9,6.9,98,0.00,CLR,,0.45,WeatherDisplay:10.37,2013-05-20 08:32:00,
2013-05-20 03:34:00,52.3,51.8,28.41,SSE,158,6.9,6.9,98,0.00,CLR,,0.45,WeatherDisplay:10.37,2013-05-20 08:34:00,
2013-05-20 03:35:00,52.2,51.6,28.41,South,180,4.6,4.6,98,0.00,CLR,,0.45,WeatherDisplay:10.37,2013-05-20 08:35:00,
2013-05-20 03:36:00,52.2,51.6,28.41,South,180,4.6,4.6,98,0.00,CLR,,0.45,WeatherDisplay:10.37,2013-05-20 08:36:00,
2013-05-20 03:37:00,52.2,51.6,28.41,SSE,158,5.8,5.8,98,0.00,CLR,,0.45,WeatherDisplay:10.37,2013-05-20 08:37:00,
2013-05-20 03:39:00,52.2,51.6,28.38,SE,135,6.9,6.9,98,0.00,CLR,,0.45,WeatherDisplay:10.37,2013-05-20 08:39:00,
2013-05-20 03:40:00,52.2,51.6,28.38,SE,135,6.9,6.9,98,0.00,CLR,,0.45,WeatherDisplay:10.37,2013-05-20 08:40:00,
2013-05-20 03:41:00,52.2,51.6,28.38,East,90,9.2,9.2,98,0.00,CLR,,0.45,WeatherDisplay:10.37,2013-05-20 08:41:00,
2013-05-20 03:42:00,52.2,51.6,28.38,ENE,68,8.1,8.1,98,0.00,CLR,,0.45,WeatherDisplay:10.37,2013-05-20 08:42:00,
2013-05-20 03:44:00,52.2,51.6,28.38,SSE,158,6.9,6.9,98,0.00,CLR,,0.45,WeatherDisplay:10.37,2013-05-20 08:44:00,
2013-05-20 03:45:00,52.2,51.6,28.38,SE,133,6.0,9.0,98,0.00,CLR,,0.45,WeatherDisplay:10.37,2013-05-20 08:45:00,
2013-05-20 03:46:00,52.2,51.6,28.38,ESE,112,7.4,7.4,98,0.00,CLR,,0.45,WeatherDisplay:10.37,2013-05-20 08:46:00,
2013-05-20 03:47:00,52.2,51.6,28.38,SSE,158,7.1,7.1,98,0.00,CLR,,0.45,WeatherDisplay:10.37,2013-05-20 08:47:00,
2013-05-20 03:50:00,52.2,51.6,28.38,SE,135,10.4,10.4,98,0.00,CLR,,0.45,WeatherDisplay:10.37,2013-05-20 08:50:00,
2013-05-20 03:51:00,52.2,51.6,28.38,SSW,202,8.1,8.1,98,0.00,CLR,,0.45,WeatherDisplay:10.37,2013-05-20 08:51:00,
2013-05-20 03:52:00,52.2,51.6,28.38,SE,135,11.5,11.5,98,0.00,CLR,,0.45,WeatherDisplay:10.37,2013-05-20 08:52:00,
2013-05-20 03:55:00,52.2,51.6,28.38,South,180,9.2,9.2,98,0.00,CLR,,0.45,WeatherDisplay:10.37,2013-05-20 08:55:00,
2013-05-20 03:56:00,52.2,51.6,28.38,SSE,158,6.9,6.9,98,0.00,CLR,,0.45,WeatherDisplay:10.37,2013-05-20 08:56:00,
2013-05-20 03:57:00,52.2,51.6,28.38,SSE,158,6.9,6.9,98,0.00,CLR,,0.45,WeatherDisplay:10.37,2013-05-20 08:57:00,
2013-05-20 04:00:00,52.2,51.6,28.38,SSE,158,5.8,5.8,98,0.00,CLR,,0.45,WeatherDisplay:10.37,2013-05-20 09:00:00,
2013-05-20 04:02:00,52.2,51.6,28.38,SSE,158,8.5,8.5,98,0.00,CLR,,0.45,WeatherDisplay:10.37,2013-05-20 09:02:00,
2013-05-20 04:03:00,52.2,51.6,28.38,SE,135,8.1,8.1,98,0.00,CLR,,0.45,WeatherDisplay:10.37,2013-05-20 09:03:00,
2013-05-20 04:06:00,52.2,51.6,28.38,SSE,158,8.5,8.7,98,0.00,CLR,,0.45,WeatherDisplay:10.37,2013-05-20 09:06:00,
2013-05-20 04:07:00,52.2,51.6,28.38,West,270,8.1,8.1,98,0.00,CLR,,0.45,WeatherDisplay:10.37,2013-05-20 09:07:00,
2013-05-20 04:08:00,52.2,51.6,28.38,SSE,158,8.1,8.1,98,0.00,CLR,,0.45,WeatherDisplay:10.37,2013-05-20 09:08:00,
2013-05-20 04:09:00,52.2,51.6,28.38,SSE,158,17.3,17.3,98,0.00,CLR,,0.45,WeatherDisplay:10.37,2013-05-20 09:09:00,
2013-05-20 04:11:00,52.3,51.8,28.35,SSE,158,9.2,9.2,98,0.00,CLR,,0.45,WeatherDisplay:10.37,2013-05-20 09:11:00,
2013-05-20 04:13:00,52.3,51.8,28.35,ESE,112,10.4,10.4,98,0.00,CLR,,0.45,WeatherDisplay:10.37,2013-05-20 09:13:00,
2013-05-20 04:15:00,52.2,51.6,28.35,South,180,8.1,8.1,98,0.00,CLR,,0.45,WeatherDisplay:10.37,2013-05-20 09:15:00,
2013-05-20 04:17:00,52.2,51.6,28.35,South,180,5.8,6.7,98,0.00,CLR,,0.45,WeatherDisplay:10.37,2013-05-20 09:17:00,
2013-05-20 04:18:00,52.2,51.6,28.35,SSE,158,15.0,15.0,98,0.00,CLR,,0.45,WeatherDisplay:10.37,2013-05-20 09:18:00,
2013-05-20 04:20:00,52.2,51.6,28.35,SSE,158,11.5,11.5,98,0.00,CLR,,0.45,WeatherDisplay:10.37,2013-05-20 09:20:00,
2013-05-20 04:22:00,52.2,51.6,28.35,SSE,158,6.9,6.9,98,0.00,CLR,,0.45,WeatherDisplay:10.37,2013-05-20 09:22:00,
2013-05-20 04:23:00,52.2,51.6,28.35,SE,135,5.8,5.8,98,0.00,CLR,,0.45,WeatherDisplay:10.37,2013-05-20 09:23:00,
2013-05-20 04:24:00,52.2,51.6,28.35,South,180,5.8,5.8,98,0.00,CLR,,0.45,WeatherDisplay:10.37,2013-05-20 09:24:00,
2013-05-20 04:26:00,52.2,51.6,28.38,SSE,158,5.8,5.8,98,0.00,CLR,,0.45,WeatherDisplay:10.37,2013-05-20 09:26:00,
2013-05-20 04:28:00,52.2,51.6,28.38,SSE,158,7.1,7.1,98,0.00,CLR,,0.45,WeatherDisplay:10.37,2013-05-20 09:28:00,
2013-05-20 04:29:00,52.2,51.6,28.38,ESE,112,6.9,6.9,98,0.00,CLR,,0.45,WeatherDisplay:10.37,2013-05-20 09:29:00,
2013-05-20 04:31:00,52.2,51.6,28.38,SW,225,7.6,7.6,98,0.00,CLR,,0.45,WeatherDisplay:10.37,2013-05-20 09:31:00,
2013-05-20 04:33:00,52.2,51.6,28.38,SE,135,10.4,10.4,98,0.00,CLR,,0.45,WeatherDisplay:10.37,2013-05-20 09:33:00,
2013-05-20 04:34:00,52.0,51.4,28.38,SE,135,9.2,9.2,98,0.00,CLR,,0.45,WeatherDisplay:10.37,2013-05-20 09:34:00,
2013-05-20 04:36:00,52.0,51.4,28.38,SE,135,7.4,7.4,98,0.00,CLR,,0.45,WeatherDisplay:10.37,2013-05-20 09:36:00,
2013-05-20 04:38:00,52.0,51.4,28.38,SSE,158,8.1,8.1,98,0.00,CLR,,0.45,WeatherDisplay:10.37,2013-05-20 09:38:00,
2013-05-20 04:39:00,52.0,51.4,28.38,SSE,158,8.5,8.5,98,0.00,CLR,,0.45,WeatherDisplay:10.37,2013-05-20 09:39:00,
2013-05-20 04:40:00,52.0,51.4,28.35,South,180,9.2,9.2,98,0.00,CLR,,0.45,WeatherDisplay:10.37,2013-05-20 09:40:00,
2013-05-20 04:41:00,52.0,51.4,28.35,SSE,158,8.7,8.7,98,0.00,CLR,,0.45,WeatherDisplay:10.37,2013-05-20 09:41:00,
2013-05-20 04:43:00,52.0,51.4,28.35,SSE,158,9.2,9.2,98,0.00,CLR,,0.45,WeatherDisplay:10.37,2013-05-20 09:43:00,
2013-05-20 04:44:00,52.0,51.4,28.35,SE,135,6.9,6.9,98,0.00,CLR,,0.45,WeatherDisplay:10.37,2013-05-20 09:44:00,
2013-05-20 04:45:00,52.0,51.4,28.35,SSE,158,10.0,10.0,98,0.00,CLR,,0.45,WeatherDisplay:10.37,2013-05-20 09:45:00,
2013-05-20 04:46:00,52.0,51.4,28.35,SSE,158,10.4,10.4,98,0.00,CLR,,0.45,WeatherDisplay:10.37,2013-05-20 09:46:00,
2013-05-20 04:47:00,52.0,51.4,28.35,South,180,5.8,5.8,98,0.00,CLR,,0.45,WeatherDisplay:10.37,2013-05-20 09:47:00,
2013-05-20 04:48:00,52.0,51.4,28.35,SSW,202,5.8,5.8,98,0.00,CLR,,0.45,WeatherDisplay:10.37,2013-05-20 09:48:00,
2013-05-20 04:50:00,52.0,51.4,28.35,SSE,158,9.2,9.2,98,0.00,CLR,,0.45,WeatherDisplay:10.37,2013-05-20 09:50:00,
2013-05-20 04:51:00,52.0,51.4,28.35,SSE,158,11.5,11.5,98,0.00,CLR,,0.45,WeatherDisplay:10.37,2013-05-20 09:51:00,
2013-05-20 04:52:00,52.0,51.4,28.35,ENE,68,11.5,11.5,98,0.00,CLR,,0.45,WeatherDisplay:10.37,2013-05-20 09:52:00,
2013-05-20 04:54:00,52.0,51.4,28.35,SSW,202,6.9,6.9,98,0.00,CLR,,0.45,WeatherDisplay:10.37,2013-05-20 09:54:00,
2013-05-20 04:56:00,51.8,51.3,28.38,South,180,4.6,4.6,98,0.00,CLR,,0.45,WeatherDisplay:10.37,2013-05-20 09:56:00,
2013-05-20 04:57:00,51.8,51.3,28.38,East,90,15.0,15.0,98,0.00,CLR,,0.45,WeatherDisplay:10.37,2013-05-20 09:57:00,
2013-05-20 04:58:00,51.8,51.3,28.38,SSW,202,8.1,8.1,98,0.00,CLR,,0.45,WeatherDisplay:10.37,2013-05-20 09:58:00,
2013-05-20 04:59:00,51.8,51.3,28.38,ESE,112,8.1,8.1,98,0.00,CLR,,0.45,WeatherDisplay:10.37,2013-05-20 09:59:00,
2013-05-20 05:02:00,51.8,51.3,28.38,South,180,10.4,10.4,98,0.00,CLR,,0.45,WeatherDisplay:10.37,2013-05-20 10:02:00,
2013-05-20 05:03:00,51.8,51.3,28.38,SSE,158,8.1,8.1,98,0.00,CLR,,0.45,WeatherDisplay:10.37,2013-05-20 10:03:00,
2013-05-20 05:04:00,51.8,51.3,28.38,SSE,158,8.5,8.5,98,0.00,CLR,,0.45,WeatherDisplay:10.37,2013-05-20 10:04:00,
2013-05-20 05:07:00,52.0,51.4,28.38,SSE,158,13.8,13.8,98,0.00,CLR,,0.45,WeatherDisplay:10.37,2013-05-20 10:07:00,
2013-05-20 05:08:00,51.8,51.3,28.38,SSW,202,11.5,11.5,98,0.00,CLR,,0.45,WeatherDisplay:10.37,2013-05-20 10:08:00,
2013-05-20 05:09:00,51.8,51.3,28.38,SE,135,8.1,8.1,98,0.00,CLR,,0.45,WeatherDisplay:10.37,2013-05-20 10:09:00,
2013-05-20 05:13:00,51.8,51.3,28.35,SSE,158,9.2,9.2,98,0.00,CLR,,0.45,WeatherDisplay:10.37,2013-05-20 10:13:00,
2013-05-20 05:14:00,51.8,51.3,28.35,South,180,5.8,5.8,98,0.00,CLR,,0.45,WeatherDisplay:10.37,2013-05-20 10:14:00,
2013-05-20 05:18:00,51.8,51.3,28.35,ESE,112,5.8,5.8,98,0.00,CLR,,0.45,WeatherDisplay:10.37,2013-05-20 10:18:00,
2013-05-20 05:19:00,51.8,51.3,28.35,West,270,5.8,5.8,98,0.00,CLR,,0.45,WeatherDisplay:10.37,2013-05-20 10:19:00,
2013-05-20 05:23:00,51.8,51.3,28.35,SSE,158,8.1,8.1,98,0.00,CLR,,0.45,WeatherDisplay:10.37,2013-05-20 10:23:00,
2013-05-20 05:24:00,51.8,51.3,28.35,SSE,158,8.1,8.1,98,0.00,CLR,,0.45,WeatherDisplay:10.37,2013-05-20 10:24:00,
2013-05-20 05:25:00,51.8,51.3,28.38,SSE,158,6.9,6.9,98,0.00,CLR,,0.45,WeatherDisplay:10.37,2013-05-20 10:25:00,
2013-05-20 05:28:00,51.8,51.3,28.38,SE,135,12.7,12.7,98,0.00,CLR,,0.45,WeatherDisplay:10.37,2013-05-20 10:28:00,
2013-05-20 05:29:00,51.8,51.3,28.38,SE,135,10.4,10.4,98,0.00,CLR,,0.45,WeatherDisplay:10.37,2013-05-20 10:29:00,
2013-05-20 05:30:00,51.8,51.3,28.38,SSE,161,6.0,13.0,98,0.00,CLR,,0.45,WeatherDisplay:10.37,2013-05-20 10:30:00,
2013-05-20 05:33:00,51.8,51.3,28.38,SE,135,11.5,11.5,98,0.00,CLR,,0.45,WeatherDisplay:10.37,2013-05-20 10:33:00,
2013-05-20 05:34:00,51.8,51.3,28.38,SE,135,10.4,10.4,98,0.00,CLR,,0.45,WeatherDisplay:10.37,2013-05-20 10:34:00,
2013-05-20 05:35:00,51.8,51.3,28.38,SSE,160,8.0,13.0,98,0.00,CLR,,0.45,WeatherDisplay:10.37,2013-05-20 10:35:00,
2013-05-20 05:38:00,52.0,51.4,28.38,SSW,202,5.6,5.6,98,0.00,CLR,,0.45,WeatherDisplay:10.37,2013-05-20 10:38:00,
2013-05-20 05:40:00,52.0,51.4,28.38,SSE,158,10.0,10.0,98,0.00,CLR,,0.45,WeatherDisplay:10.37,2013-05-20 10:40:00,
2013-05-20 05:41:00,52.0,51.4,28.38,SSE,158,11.5,11.5,98,0.00,CLR,,0.45,WeatherDisplay:10.37,2013-05-20 10:41:00,
2013-05-20 05:43:00,52.0,51.4,28.38,SSE,158,5.8,5.8,98,0.00,CLR,,0.45,WeatherDisplay:10.37,2013-05-20 10:43:00,
2013-05-20 05:45:00,52.0,51.4,28.38,SE,135,10.4,10.4,98,0.00,CLR,,0.45,WeatherDisplay:10.37,2013-05-20 10:45:00,
2013-05-20 05:46:00,52.0,51.4,28.38,South,180,10.4,10.4,98,0.00,CLR,,0.45,WeatherDisplay:10.37,2013-05-20 10:46:00,
2013-05-20 05:49:00,52.0,51.4,28.38,SSE,158,9.2,9.2,98,0.00,CLR,,0.45,WeatherDisplay:10.37,2013-05-20 10:49:00,
2013-05-20 05:50:00,52.0,51.4,28.38,South,180,5.8,5.8,98,0.00,CLR,,0.45,WeatherDisplay:10.37,2013-05-20 10:50:00,
2013-05-20 05:51:00,52.0,51.4,28.38,SSE,158,5.9,5.9,98,0.00,CLR,,0.45,WeatherDisplay:10.37,2013-05-20 10:51:00,
2013-05-20 05:52:00,52.0,51.4,28.38,SW,225,7.4,7.4,98,0.00,CLR,,0.45,WeatherDisplay:10.37,2013-05-20 10:52:00,
2013-05-20 05:54:00,52.0,51.4,28.38,SSE,158,11.5,11.5,98,0.00,CLR,,0.45,WeatherDisplay:10.37,2013-05-20 10:54:00,
2013-05-20 05:55:00,52.0,51.4,28.38,SSE,158,11.5,11.5,98,0.00,CLR,,0.45,WeatherDisplay:10.37,2013-05-20 10:55:00,
2013-05-20 05:56:00,52.0,51.4,28.38,South,180,5.8,5.8,98,0.00,CLR,,0.45,WeatherDisplay:10.37,2013-05-20 10:56:00,
2013-05-20 05:57:00,52.0,51.4,28.38,SSE,158,6.2,7.4,98,0.00,CLR,,0.45,WeatherDisplay:10.37,2013-05-20 10:57:00,
2013-05-20 05:59:00,52.0,51.4,28.38,SSE,158,10.4,10.4,98,0.00,CLR,,0.45,WeatherDisplay:10.37,2013-05-20 10:59:00,
2013-05-20 06:01:00,52.0,51.4,28.38,SSE,158,8.1,8.1,98,0.00,CLR,,0.45,WeatherDisplay:10.37,2013-05-20 11:01:00,
2013-05-20 06:02:00,52.0,51.4,28.38,SSE,158,5.8,5.8,98,0.00,CLR,,0.45,WeatherDisplay:10.37,2013-05-20 11:02:00,
2013-05-20 06:04:00,52.0,51.4,28.38,SSE,158,11.2,11.2,98,0.00,CLR,,0.45,WeatherDisplay:10.37,2013-05-20 11:04:00,
2013-05-20 06:06:00,52.0,51.4,28.38,SE,135,11.5,11.5,98,0.00,CLR,,0.45,WeatherDisplay:10.37,2013-05-20 11:06:00,
2013-05-20 06:07:00,52.0,51.4,28.38,South,180,9.2,9.2,98,0.00,CLR,,0.45,WeatherDisplay:10.37,2013-05-20 11:07:00,
2013-05-20 06:08:00,52.0,51.4,28.38,SW,225,9.2,9.2,98,0.00,CLR,,0.45,WeatherDisplay:10.37,2013-05-20 11:08:00,
2013-05-20 06:10:00,52.0,51.4,28.38,South,180,5.8,5.8,98,0.00,CLR,,0.45,WeatherDisplay:10.37,2013-05-20 11:10:00,
2013-05-20 06:11:00,52.0,51.4,28.38,SSE,158,3.5,3.6,98,0.00,CLR,,0.45,WeatherDisplay:10.37,2013-05-20 11:11:00,
2013-05-20 06:12:00,52.0,51.4,28.38,SSE,158,6.0,6.0,98,0.00,CLR,,0.45,WeatherDisplay:10.37,2013-05-20 11:12:00,
2013-05-20 06:13:00,52.0,51.4,28.38,ESE,112,8.1,8.1,98,0.00,CLR,,0.45,WeatherDisplay:10.37,2013-05-20 11:13:00,
2013-05-20 06:15:00,52.0,51.4,28.38,SSE,158,8.1,8.1,98,0.00,CLR,,0.45,WeatherDisplay:10.37,2013-05-20 11:15:00,
2013-05-20 06:16:00,52.0,51.4,28.38,SSE,158,8.1,8.1,98,0.00,CLR,,0.45,WeatherDisplay:10.37,2013-05-20 11:16:00,
2013-05-20 06:17:00,52.0,51.4,28.38,SSE,158,6.9,6.9,98,0.00,CLR,,0.45,WeatherDisplay:10.37,2013-05-20 11:17:00,
2013-05-20 06:18:00,52.0,51.4,28.38,SSE,158,6.9,6.9,98,0.00,CLR,,0.45,WeatherDisplay:10.37,2013-05-20 11:18:00,
2013-05-20 06:19:00,52.0,51.2,28.38,South,180,6.9,6.9,97,0.00,CLR,,0.45,WeatherDisplay:10.37,2013-05-20 11:19:00,
2013-05-20 06:20:00,52.0,51.2,28.38,SSE,158,5.8,5.8,97,0.00,CLR,,0.45,WeatherDisplay:10.37,2013-05-20 11:20:00,
2013-05-20 06:22:00,52.0,51.2,28.38,SSE,158,10.4,10.4,97,0.00,CLR,,0.45,WeatherDisplay:10.37,2013-05-20 11:22:00,
2013-05-20 06:23:00,52.0,51.2,28.38,South,180,10.4,10.4,97,0.00,CLR,,0.45,WeatherDisplay:10.37,2013-05-20 11:23:00,
2013-05-20 06:24:00,52.0,51.2,28.38,SSE,158,9.2,9.2,97,0.00,CLR,,0.45,WeatherDisplay:10.37,2013-05-20 11:24:00,
2013-05-20 06:26:00,52.2,51.3,28.38,SSE,158,9.2,9.2,97,0.00,CLR,,0.45,WeatherDisplay:10.37,2013-05-20 11:26:00,
2013-05-20 06:27:00,52.2,51.3,28.38,SSE,158,6.2,6.2,97,0.00,CLR,,0.45,WeatherDisplay:10.37,2013-05-20 11:27:00,
2013-05-20 06:28:00,52.2,51.3,28.38,SSE,158,8.5,8.5,97,0.00,CLR,,0.45,WeatherDisplay:10.37,2013-05-20 11:28:00,
2013-05-20 06:29:00,52.2,51.3,28.38,SSE,158,8.1,8.1,97,0.00,CLR,,0.45,WeatherDisplay:10.37,2013-05-20 11:29:00,
2013-05-20 06:31:00,52.2,51.3,28.38,SSE,158,8.1,8.1,97,0.00,CLR,,0.45,WeatherDisplay:10.37,2013-05-20 11:31:00,
2013-05-20 06:32:00,52.2,51.3,28.38,SSE,158,8.1,8.1,97,0.00,CLR,,0.45,WeatherDisplay:10.37,2013-05-20 11:32:00,
2013-05-20 06:34:00,52.2,51.3,28.38,SSE,158,9.2,9.2,97,0.00,CLR,,0.45,WeatherDisplay:10.37,2013-05-20 11:34:00,
2013-05-20 06:35:00,52.2,51.3,28.38,SSE,164,7.0,10.0,97,0.00,CLR,,0.45,WeatherDisplay:10.37,2013-05-20 11:35:00,
2013-05-20 06:36:00,52.2,51.3,28.38,SSE,158,10.4,10.4,97,0.00,CLR,,0.45,WeatherDisplay:10.37,2013-05-20 11:36:00,
2013-05-20 06:37:00,52.2,51.3,28.38,SSE,158,10.4,10.4,97,0.00,CLR,,0.45,WeatherDisplay:10.37,2013-05-20 11:37:00,
2013-05-20 06:39:00,52.2,51.3,28.38,South,180,10.4,10.4,97,0.00,CLR,,0.45,WeatherDisplay:10.37,2013-05-20 11:39:00,
2013-05-20 06:40:00,52.2,51.3,28.41,South,180,9.2,9.2,97,0.00,CLR,,0.45,WeatherDisplay:10.37,2013-05-20 11:40:00,
2013-05-20 06:41:00,52.2,51.3,28.41,SSE,158,9.2,9.2,97,0.00,CLR,,0.45,WeatherDisplay:10.37,2013-05-20 11:41:00,
2013-05-20 06:43:00,52.2,51.3,28.41,South,180,9.2,9.2,97,0.00,CLR,,0.45,WeatherDisplay:10.37,2013-05-20 11:43:00,
2013-05-20 06:44:00,52.3,51.2,28.41,SSW,202,9.2,9.2,96,0.00,CLR,,0.45,WeatherDisplay:10.37,2013-05-20 11:44:00,
2013-05-20 06:46:00,52.3,51.2,28.41,SSE,158,4.6,4.6,96,0.00,CLR,,0.45,WeatherDisplay:10.37,2013-05-20 11:46:00,
2013-05-20 06:48:00,52.3,51.2,28.41,South,180,9.2,9.2,96,0.00,CLR,,0.45,WeatherDisplay:10.37,2013-05-20 11:48:00,
2013-05-20 06:51:00,52.3,51.2,28.41,SSW,202,8.1,8.1,96,0.00,CLR,,0.45,WeatherDisplay:10.37,2013-05-20 11:51:00,
2013-05-20 06:53:00,52.5,51.4,28.41,SSW,202,5.8,5.8,96,0.00,CLR,,0.45,WeatherDisplay:10.37,2013-05-20 11:53:00,
2013-05-20 06:56:00,52.7,51.6,28.44,SSE,158,6.0,6.0,96,0.00,CLR,,0.45,WeatherDisplay:10.37,2013-05-20 11:56:00,
2013-05-20 06:57:00,52.7,51.6,28.44,SSE,158,6.9,6.9,96,0.00,CLR,,0.45,WeatherDisplay:10.37,2013-05-20 11:57:00,
2013-05-20 06:58:00,52.7,51.6,28.44,SE,135,10.4,10.4,96,0.00,CLR,,0.45,WeatherDisplay:10.37,2013-05-20 11:58:00,
2013-05-20 07:01:00,52.7,51.3,28.44,SSE,158,11.5,11.5,95,0.00,CLR,,0.45,WeatherDisplay:10.37,2013-05-20 12:01:00,
2013-05-20 07:02:00,52.7,51.3,28.44,SSE,158,11.5,11.5,95,0.00,CLR,,0.45,WeatherDisplay:10.37,2013-05-20 12:02:00,
2013-05-20 07:04:00,52.7,51.3,28.44,SSE,158,8.7,8.7,95,0.00,CLR,,0.45,WeatherDisplay:10.37,2013-05-20 12:04:00,
2013-05-20 07:07:00,52.9,51.5,28.44,SSW,202,7.8,7.8,95,0.00,CLR,,0.45,WeatherDisplay:10.37,2013-05-20 12:07:00,
2013-05-20 07:08:00,52.9,51.5,28.44,SSW,202,5.8,5.8,95,0.00,CLR,,0.45,WeatherDisplay:10.37,2013-05-20 12:08:00,
2013-05-20 07:09:00,52.9,51.5,28.44,South,180,6.9,6.9,95,0.00,CLR,,0.45,WeatherDisplay:10.37,2013-05-20 12:09:00,
2013-05-20 07:12:00,52.9,51.2,28.44,South,180,10.4,10.4,94,0.00,CLR,,0.45,WeatherDisplay:10.37,2013-05-20 12:12:00,
2013-05-20 07:13:00,52.9,51.2,28.44,SSE,158,9.2,9.2,94,0.00,CLR,,0.45,WeatherDisplay:10.37,2013-05-20 12:13:00,
2013-05-20 07:14:00,52.9,51.2,28.44,SSE,158,12.7,12.7,94,0.00,CLR,,0.45,WeatherDisplay:10.37,2013-05-20 12:14:00,
2013-05-20 07:17:00,53.1,51.1,28.44,South,180,9.2,9.2,93,0.00,CLR,,0.45,WeatherDisplay:10.37,2013-05-20 12:17:00,
2013-05-20 07:18:00,53.1,51.1,28.44,South,180,9.2,9.2,93,0.00,CLR,,0.45,WeatherDisplay:10.37,2013-05-20 12:18:00,
2013-05-20 07:20:00,53.1,51.1,28.44,South,175,7.0,17.0,93,0.00,CLR,,0.45,WeatherDisplay:10.37,2013-05-20 12:20:00,
2013-05-20 07:22:00,53.2,51.0,28.44,SSE,158,13.8,13.8,92,0.00,CLR,,0.45,WeatherDisplay:10.37,2013-05-20 12:22:00,
2013-05-20 07:23:00,53.2,51.0,28.44,WSW,248,9.2,9.2,92,0.00,CLR,,0.45,WeatherDisplay:10.37,2013-05-20 12:23:00,
2013-05-20 07:24:00,53.2,51.0,28.44,South,180,9.2,9.2,92,0.00,CLR,,0.45,WeatherDisplay:10.37,2013-05-20 12:24:00,
2013-05-20 07:25:00,53.4,51.2,28.44,SE,135,10.4,10.4,92,0.00,CLR,,0.45,WeatherDisplay:10.37,2013-05-20 12:25:00,
2013-05-20 07:28:00,53.4,51.2,28.44,SE,135,6.9,6.9,92,0.00,CLR,,0.45,WeatherDisplay:10.37,2013-05-20 12:28:00,
2013-05-20 07:29:00,53.4,51.2,28.44,SSE,158,7.8,7.8,92,0.00,CLR,,0.45,WeatherDisplay:10.37,2013-05-20 12:29:00,
2013-05-20 07:30:00,53.6,51.3,28.44,NNE,22,8.1,8.1,92,0.00,CLR,,0.45,WeatherDisplay:10.37,2013-05-20 12:30:00,
2013-05-20 07:33:00,53.8,51.5,28.44,SE,135,3.5,3.5,92,0.00,CLR,,0.45,WeatherDisplay:10.37,2013-05-20 12:33:00,
2013-05-20 07:34:00,53.8,51.5,28.44,SSE,158,6.0,6.0,92,0.00,CLR,,0.45,WeatherDisplay:10.37,2013-05-20 12:34:00,
2013-05-20 07:36:00,54.0,51.4,28.44,SE,135,8.1,8.1,91,0.00,CLR,,0.45,WeatherDisplay:10.37,2013-05-20 12:36:00,
2013-05-20 07:38:00,54.0,51.4,28.44,SSW,202,6.9,6.9,91,0.00,CLR,,0.45,WeatherDisplay:10.37,2013-05-20 12:38:00,
2013-05-20 07:39:00,54.0,51.4,28.44,South,180,6.9,6.9,91,0.00,CLR,,0.45,WeatherDisplay:10.37,2013-05-20 12:39:00,
2013-05-20 07:41:00,54.1,51.3,28.44,SSW,202,4.6,4.6,90,0.00,CLR,,0.45,WeatherDisplay:10.37,2013-05-20 12:41:00,
2013-05-20 07:43:00,54.1,51.0,28.44,South,180,6.9,6.9,89,0.00,CLR,,0.45,WeatherDisplay:10.37,2013-05-20 12:43:00,
2013-05-20 07:44:00,54.3,51.1,28.44,SSE,158,6.9,6.9,89,0.00,CLR,,0.45,WeatherDisplay:10.37,2013-05-20 12:44:00,
2013-05-20 07:45:00,54.3,51.1,28.44,South,170,3.0,7.0,89,0.00,CLR,,0.45,WeatherDisplay:10.37,2013-05-20 12:45:00,
2013-05-20 07:47:00,54.3,51.1,28.44,SSE,158,5.8,6.2,89,0.00,CLR,,0.45,WeatherDisplay:10.37,2013-05-20 12:47:00,
2013-05-20 07:48:00,54.5,51.3,28.44,WSW,248,8.1,8.1,89,0.00,CLR,,0.45,WeatherDisplay:10.37,2013-05-20 12:48:00,
2013-05-20 07:49:00,54.5,51.3,28.44,SSE,158,8.1,8.1,89,0.00,CLR,,0.45,WeatherDisplay:10.37,2013-05-20 12:49:00,
2013-05-20 07:50:00,54.5,51.3,28.44,SSE,158,9.2,9.2,89,0.00,CLR,,0.45,WeatherDisplay:10.37,2013-05-20 12:50:00,
2013-05-20 07:52:00,54.5,50.7,28.44,SSE,158,11.5,11.5,87,0.00,CLR,,0.45,WeatherDisplay:10.37,2013-05-20 12:52:00,
2013-05-20 07:54:00,54.5,50.7,28.44,SSE,158,11.5,11.5,87,0.00,CLR,,0.45,WeatherDisplay:10.37,2013-05-20 12:54:00,
2013-05-20 07:55:00,54.5,50.7,28.44,SSE,166,9.0,12.0,87,0.00,CLR,,0.45,WeatherDisplay:10.37,2013-05-20 12:55:00,
2013-05-20 07:58:00,54.9,51.1,28.44,SSW,202,8.1,8.1,87,0.00,CLR,,0.45,WeatherDisplay:10.37,2013-05-20 12:58:00,
2013-05-20 07:59:00,54.9,51.1,28.44,SSE,158,8.1,8.1,87,0.00,CLR,,0.45,WeatherDisplay:10.37,2013-05-20 12:59:00,
2013-05-20 08:01:00,54.9,51.1,28.44,South,180,5.8,5.8,87,0.00,CLR,,0.45,WeatherDisplay:10.37,2013-05-20 13:01:00,
2013-05-20 08:02:00,54.9,50.8,28.44,South,180,5.8,5.8,86,0.00,CLR,,0.45,WeatherDisplay:10.37,2013-05-20 13:02:00,
2013-05-20 08:04:00,55.0,50.9,28.44,SSE,158,9.2,9.2,86,0.00,CLR,,0.45,WeatherDisplay:10.37,2013-05-20 13:04:00,
2013-05-20 08:05:00,55.2,51.1,28.44,SSE,158,5.8,5.8,86,0.00,CLR,,0.45,WeatherDisplay:10.37,2013-05-20 13:05:00,
2013-05-20 08:06:00,55.4,51.3,28.44,SSW,202,4.6,4.6,86,0.00,CLR,,0.45,WeatherDisplay:10.37,2013-05-20 13:06:00,
2013-05-20 08:07:00,55.4,51.3,28.44,SSE,158,5.9,5.9,86,0.00,CLR,,0.45,WeatherDisplay:10.37,2013-05-20 13:07:00,
2013-05-20 08:09:00,55.4,50.6,28.44,South,180,9.0,9.0,84,0.00,CLR,,0.45,WeatherDisplay:10.37,2013-05-20 13:09:00,
2013-05-20 08:10:00,55.4,50.3,28.41,SSW,202,12.7,12.7,83,0.00,CLR,,0.45,WeatherDisplay:10.37,2013-05-20 13:10:00,
2013-05-20 08:11:00,55.4,50.3,28.41,SSE,158,12.7,12.7,83,0.00,CLR,,0.45,WeatherDisplay:10.37,2013-05-20 13:11:00,
2013-05-20 08:12:00,55.9,50.9,28.41,SSE,158,3.5,3.5,83,0.00,CLR,,0.45,WeatherDisplay:10.37,2013-05-20 13:12:00,
2013-05-20 08:14:00,55.9,50.9,28.41,SSE,158,6.0,6.0,83,0.00,CLR,,0.45,WeatherDisplay:10.37,2013-05-20 13:14:00,
2013-05-20 08:15:00,56.1,50.4,28.41,SSE,158,10.4,10.4,81,0.00,CLR,,0.45,WeatherDisplay:10.37,2013-05-20 13:15:00,
2013-05-20 08:17:00,56.3,50.9,28.41,South,180,5.8,5.8,82,0.00,CLR,,0.45,WeatherDisplay:10.37,2013-05-20 13:17:00,
2013-05-20 08:18:00,56.3,50.9,28.41,SSW,202,9.2,9.2,82,0.00,CLR,,0.45,WeatherDisplay:10.37,2013-05-20 13:18:00,
2013-05-20 08:19:00,56.3,50.5,28.41,SSW,202,9.2,9.2,81,0.00,CLR,,0.45,WeatherDisplay:10.37,2013-05-20 13:19:00,
2013-05-20 08:20:00,56.5,50.4,28.41,West,270,10.4,10.4,80,0.00,CLR,,0.45,WeatherDisplay:10.37,2013-05-20 13:20:00,
2013-05-20 08:22:00,56.5,50.4,28.41,SSW,202,8.1,8.1,80,0.00,CLR,,0.45,WeatherDisplay:10.37,2013-05-20 13:22:00,
2013-05-20 08:23:00,56.5,50.4,28.41,SSE,158,8.5,8.5,80,0.00,CLR,,0.45,WeatherDisplay:10.37,2013-05-20 13:23:00,
2013-05-20 08:25:00,57.0,50.6,28.41,SSE,158,9.2,9.2,79,0.00,CLR,,0.45,WeatherDisplay:10.37,2013-05-20 13:25:00,
2013-05-20 08:28:00,57.4,50.6,28.41,South,180,8.1,8.1,78,0.00,CLR,,0.45,WeatherDisplay:10.37,2013-05-20 13:28:00,
2013-05-20 08:29:00,57.7,50.2,28.41,SSE,158,8.1,8.1,76,0.00,CLR,,0.45,WeatherDisplay:10.37,2013-05-20 13:29:00,
2013-05-20 08:30:00,57.9,50.8,28.41,South,180,8.1,8.1,77,0.00,CLR,,0.45,WeatherDisplay:10.37,2013-05-20 13:30:00,
2013-05-20 08:31:00,57.7,49.9,28.41,South,180,12.7,12.7,75,0.00,CLR,,0.45,WeatherDisplay:10.37,2013-05-20 13:31:00,
2013-05-20 08:33:00,58.3,50.4,28.41,WSW,248,10.4,10.4,75,0.00,CLR,,0.45,WeatherDisplay:10.37,2013-05-20 13:33:00,
2013-05-20 08:35:00,58.1,49.5,28.41,SSW,202,16.1,16.1,73,0.00,CLR,,0.45,WeatherDisplay:10.37,2013-05-20 13:35:00,
2013-05-20 08:36:00,58.1,49.5,28.41,South,180,9.4,9.4,73,0.00,CLR,,0.45,WeatherDisplay:10.37,2013-05-20 13:36:00,
2013-05-20 08:38:00,58.1,49.5,28.41,WSW,248,6.9,6.9,73,0.00,CLR,,0.45,WeatherDisplay:10.37,2013-05-20 13:38:00,
2013-05-20 08:40:00,58.8,49.8,28.41,South,180,16.1,16.1,72,0.00,CLR,,0.45,WeatherDisplay:10.37,2013-05-20 13:40:00,
2013-05-20 08:41:00,58.8,49.8,28.41,West,270,16.1,16.1,72,0.00,CLR,,0.45,WeatherDisplay:10.37,2013-05-20 13:41:00,
2013-05-20 08:43:00,59.7,50.3,28.41,SSE,158,8.1,8.1,71,0.00,CLR,,0.45,WeatherDisplay:10.37,2013-05-20 13:43:00,
2013-05-20 08:44:00,59.7,50.3,28.41,SW,225,8.1,8.1,71,0.00,CLR,,0.45,WeatherDisplay:10.37,2013-05-20 13:44:00,
2013-05-20 08:46:00,59.5,49.7,28.41,South,180,10.4,10.4,70,0.00,CLR,,0.45,WeatherDisplay:10.37,2013-05-20 13:46:00,
2013-05-20 08:47:00,59.4,49.6,28.41,SE,135,10.4,10.4,70,0.00,CLR,,0.45,WeatherDisplay:10.37,2013-05-20 13:47:00,
2013-05-20 08:48:00,59.2,49.4,28.41,NE,45,5.8,5.8,70,0.00,CLR,,0.45,WeatherDisplay:10.37,2013-05-20 13:48:00,
2013-05-20 08:49:00,59.5,49.7,28.41,South,180,5.8,5.8,70,0.00,CLR,,0.45,WeatherDisplay:10.37,2013-05-20 13:49:00,
2013-05-20 08:51:00,60.4,50.6,28.41,NE,45,5.8,5.8,70,0.00,CLR,,0.45,WeatherDisplay:10.37,2013-05-20 13:51:00,
2013-05-20 08:52:00,60.4,50.6,28.41,SE,135,3.5,3.5,70,0.00,CLR,,0.45,WeatherDisplay:10.37,2013-05-20 13:52:00,
2013-05-20 08:54:00,60.8,50.2,28.41,WSW,248,8.1,8.1,68,0.00,CLR,,0.45,WeatherDisplay:10.37,2013-05-20 13:54:00,
2013-05-20 08:57:00,59.7,48.3,28.41,SW,225,6.9,6.9,66,0.00,CLR,,0.45,WeatherDisplay:10.37,2013-05-20 13:57:00,
2013-05-20 08:59:00,59.5,48.2,28.41,SSW,202,9.2,9.2,66,0.00,CLR,,0.45,WeatherDisplay:10.37,2013-05-20 13:59:00,
2013-05-20 09:00:00,59.7,48.4,28.41,SSW,204,6.0,10.0,66,0.00,CLR,,0.45,WeatherDisplay:10.37,2013-05-20 14:00:00,
2013-05-20 09:02:00,59.7,48.3,28.41,SSE,158,6.9,6.9,66,0.00,CLR,,0.45,WeatherDisplay:10.37,2013-05-20 14:02:00,
2013-05-20 09:03:00,59.7,48.3,28.41,SSE,158,10.4,10.4,66,0.00,CLR,,0.45,WeatherDisplay:10.37,2013-05-20 14:03:00,
2013-05-20 09:05:00,59.7,48.3,28.41,SSE,158,5.8,5.8,66,0.00,CLR,,0.45,WeatherDisplay:10.37,2013-05-20 14:05:00,
2013-05-20 09:07:00,59.9,49.3,28.41,East,90,4.3,4.3,68,0.00,CLR,,0.45,WeatherDisplay:10.37,2013-05-20 14:07:00,
2013-05-20 09:09:00,60.4,49.4,28.41,SW,225,3.8,3.8,67,0.00,CLR,,0.45,WeatherDisplay:10.37,2013-05-20 14:09:00,
2013-05-20 09:10:00,60.4,49.4,28.41,ESE,112,3.1,3.1,67,0.00,CLR,,0.45,WeatherDisplay:10.37,2013-05-20 14:10:00,
2013-05-20 09:12:00,61.3,49.5,28.41,South,180,6.9,6.9,65,0.00,CLR,,0.45,WeatherDisplay:10.37,2013-05-20 14:12:00,
2013-05-20 09:14:00,60.8,48.1,28.41,SSW,202,6.9,6.9,63,0.00,CLR,,0.45,WeatherDisplay:10.37,2013-05-20 14:14:00,
2013-05-20 09:15:00,60.9,48.2,28.41,SSW,207,6.0,7.0,63,0.00,CLR,,0.45,WeatherDisplay:10.37,2013-05-20 14:15:00,
2013-05-20 09:16:00,61.3,48.6,28.41,SE,135,4.6,4.6,63,0.00,CLR,,0.45,WeatherDisplay:10.37,2013-05-20 14:16:00,
2013-05-20 09:18:00,62.4,50.1,28.41,SSE,158,4.6,4.6,64,0.00,CLR,,0.45,WeatherDisplay:10.37,2013-05-20 14:18:00,
2013-05-20 09:20:00,61.2,48.0,28.41,SW,225,5.8,7.8,62,0.00,CLR,,0.45,WeatherDisplay:10.37,2013-05-20 14:20:00,
2013-05-20 09:21:00,61.5,49.2,28.41,NNE,22,3.5,3.5,64,0.00,CLR,,0.45,WeatherDisplay:10.37,2013-05-20 14:21:00,
2013-05-20 09:24:00,62.6,50.2,28.41,South,180,8.1,8.1,64,0.00,CLR,,0.45,WeatherDisplay:10.37,2013-05-20 14:24:00,
2013-05-20 09:25:00,63.1,49.9,28.41,West,270,4.6,4.6,62,0.00,CLR,,0.45,WeatherDisplay:10.37,2013-05-20 14:25:00,
2013-05-20 09:26:00,63.1,49.9,28.41,SE,135,4.6,4.6,62,0.00,CLR,,0.45,WeatherDisplay:10.37,2013-05-20 14:26:00,
2013-05-20 09:27:00,63.1,49.9,28.41,South,180,5.8,5.8,62,0.00,CLR,,0.45,WeatherDisplay:10.37,2013-05-20 14:27:00,
2013-05-20 09:29:00,63.1,48.1,28.41,WSW,248,5.8,5.8,58,0.00,CLR,,0.45,WeatherDisplay:10.37,2013-05-20 14:29:00,
2013-05-20 09:30:00,63.5,49.4,28.41,West,270,8.1,8.1,60,0.00,CLR,,0.45,WeatherDisplay:10.37,2013-05-20 14:30:00,
2013-05-20 09:31:00,63.5,49.4,28.41,WSW,248,8.1,8.1,60,0.00,CLR,,0.45,WeatherDisplay:10.37,2013-05-20 14:31:00,
2013-05-20 09:32:00,63.9,49.7,28.41,West,270,6.9,6.9,60,0.00,CLR,,0.45,WeatherDisplay:10.37,2013-05-20 14:32:00,
2013-05-20 09:33:00,63.3,48.7,28.41,WSW,248,9.7,9.7,59,0.00,CLR,,0.45,WeatherDisplay:10.37,2013-05-20 14:33:00,
2013-05-20 09:35:00,63.1,47.7,28.41,West,270,9.2,9.2,57,0.00,CLR,,0.45,WeatherDisplay:10.37,2013-05-20 14:35:00,
2013-05-20 09:36:00,64.2,50.0,28.41,SSW,202,5.8,5.8,60,0.00,CLR,,0.45,WeatherDisplay:10.37,2013-05-20 14:36:00,
2013-05-20 09:37:00,64.6,49.9,28.41,ENE,68,3.6,3.6,59,0.00,CLR,,0.45,WeatherDisplay:10.37,2013-05-20 14:37:00,
2013-05-20 09:39:00,64.9,48.9,28.41,SSE,158,12.7,12.7,56,0.00,CLR,,0.45,WeatherDisplay:10.37,2013-05-20 14:39:00,
2013-05-20 09:40:00,63.9,48.3,28.44,WNW,292,12.7,12.7,57,0.00,CLR,,0.45,WeatherDisplay:10.37,2013-05-20 14:40:00,
2013-05-20 09:41:00,64.4,50.2,28.44,West,270,8.1,8.1,60,0.00,CLR,,0.45,WeatherDisplay:10.37,2013-05-20 14:41:00,
2013-05-20 09:43:00,64.6,48.5,28.44,South,180,4.6,4.9,56,0.00,CLR,,0.45,WeatherDisplay:10.37,2013-05-20 14:43:00,
2013-05-20 09:45:00,64.4,47.9,28.44,South,180,8.1,8.1,55,0.00,CLR,,0.45,WeatherDisplay:10.37,2013-05-20 14:45:00,
2013-05-20 09:46:00,64.4,47.4,28.44,NE,45,8.1,8.1,54,0.00,CLR,,0.45,WeatherDisplay:10.37,2013-05-20 14:46:00,
2013-05-20 09:48:00,64.8,47.7,28.44,SSE,158,5.8,5.8,54,0.00,CLR,,0.45,WeatherDisplay:10.37,2013-05-20 14:48:00,
2013-05-20 09:50:00,64.6,48.5,28.44,WNW,292,6.9,6.9,56,0.00,CLR,,0.45,WeatherDisplay:10.37,2013-05-20 14:50:00,
2013-05-20 09:51:00,64.6,48.5,28.44,WSW,248,6.9,6.9,56,0.00,CLR,,0.45,WeatherDisplay:10.37,2013-05-20 14:51:00,
2013-05-20 09:52:00,64.9,48.4,28.44,SE,135,5.8,5.8,55,0.00,CLR,,0.45,WeatherDisplay:10.37,2013-05-20 14:52:00,
2013-05-20 09:53:00,65.7,48.6,28.44,WSW,248,3.5,3.5,54,0.00,CLR,,0.45,WeatherDisplay:10.37,2013-05-20 14:53:00,
2013-05-20 09:55:00,65.5,48.9,28.44,SSW,202,5.8,5.8,55,0.00,CLR,,0.45,WeatherDisplay:10.37,2013-05-20 14:55:00,
2013-05-20 09:56:00,65.5,48.9,28.44,NE,45,7.1,7.1,55,0.00,CLR,,0.45,WeatherDisplay:10.37,2013-05-20 14:56:00,
2013-05-20 09:57:00,65.7,48.1,28.44,SSW,202,6.9,6.9,53,0.00,CLR,,0.45,WeatherDisplay:10.37,2013-05-20 14:57:00,
2013-05-20 09:59:00,65.7,47.0,28.44,SW,225,6.9,6.9,51,0.00,CLR,,0.45,WeatherDisplay:10.37,2013-05-20 14:59:00,
2013-05-20 10:00:00,65.3,46.2,28.44,SW,225,12.7,12.7,50,0.00,CLR,,0.45,WeatherDisplay:10.37,2013-05-20 15:00:00,
2013-05-20 10:01:00,65.8,47.2,28.44,WNW,292,6.9,6.9,51,0.00,CLR,,0.45,WeatherDisplay:10.37,2013-05-20 15:01:00,
2013-05-20 10:02:00,66.0,46.8,28.44,SSW,202,6.9,6.9,50,0.00,CLR,,0.45,WeatherDisplay:10.37,2013-05-20 15:02:00,
2013-05-20 10:03:00,66.0,46.8,28.44,WSW,248,3.5,3.5,50,0.00,CLR,,0.45,WeatherDisplay:10.37,2013-05-20 15:03:00,
2013-05-20 10:04:00,66.0,47.9,28.44,North,0,4.6,4.6,52,0.00,CLR,,0.45,WeatherDisplay:10.37,2013-05-20 15:04:00,
2013-05-20 10:05:00,66.2,47.5,28.44,West,270,4.6,4.6,51,0.00,CLR,,0.45,WeatherDisplay:10.37,2013-05-20 15:05:00,
2013-05-20 10:06:00,66.2,47.5,28.44,NNE,22,6.9,6.9,51,0.00,CLR,,0.45,WeatherDisplay:10.37,2013-05-20 15:06:00,
2013-05-20 10:07:00,66.4,47.2,28.44,West,270,4.6,4.6,50,0.00,CLR,,0.45,WeatherDisplay:10.37,2013-05-20 15:07:00,
2013-05-20 10:08:00,66.6,47.9,28.44,SE,135,4.6,4.6,51,0.00,CLR,,0.45,WeatherDisplay:10.37,2013-05-20 15:08:00,
2013-05-20 10:10:00,66.7,47.5,28.44,North,0,5.8,5.8,50,0.00,CLR,,0.45,WeatherDisplay:10.37,2013-05-20 15:10:00,
2013-05-20 10:11:00,66.7,47.0,28.44,South,180,6.2,6.2,49,0.00,CLR,,0.45,WeatherDisplay:10.37,2013-05-20 15:11:00,
2013-05-20 10:12:00,66.7,47.0,28.44,West,270,5.8,5.8,49,0.00,CLR,,0.45,WeatherDisplay:10.37,2013-05-20 15:12:00,
2013-05-20 10:13:00,66.4,46.1,28.44,South,180,6.9,6.9,48,0.00,CLR,,0.45,WeatherDisplay:10.37,2013-05-20 15:13:00,
2013-05-20 10:15:00,66.2,45.4,28.44,NW,315,8.1,8.1,47,0.00,CLR,,0.45,WeatherDisplay:10.37,2013-05-20 15:15:00,
2013-05-20 10:16:00,66.2,46.5,28.44,WSW,248,6.9,6.9,49,0.00,CLR,,0.45,WeatherDisplay:10.37,2013-05-20 15:16:00,
2013-05-20 10:17:00,66.2,45.4,28.44,SSW,202,5.8,5.8,47,0.00,CLR,,0.45,WeatherDisplay:10.37,2013-05-20 15:17:00,
2013-05-20 10:18:00,66.0,45.2,28.44,SSE,158,9.8,9.8,47,0.00,CLR,,0.45,WeatherDisplay:10.37,2013-05-20 15:18:00,
2013-05-20 10:20:00,66.0,46.3,28.44,WSW,248,8.1,8.1,49,0.00,CLR,,0.45,WeatherDisplay:10.37,2013-05-20 15:20:00,
2013-05-20 10:21:00,66.4,46.6,28.44,West,270,5.8,5.8,49,0.00,CLR,,0.45,WeatherDisplay:10.37,2013-05-20 15:21:00,
2013-05-20 10:24:00,67.1,47.3,28.44,SSW,202,5.8,5.8,49,0.00,CLR,,0.45,WeatherDisplay:10.37,2013-05-20 15:24:00,
2013-05-20 10:25:00,67.3,46.9,28.44,WNW,292,5.8,5.8,48,0.00,CLR,,0.45,WeatherDisplay:10.37,2013-05-20 15:25:00,
2013-05-20 10:26:00,67.3,45.8,28.44,SSW,202,5.8,5.8,46,0.00,CLR,,0.45,WeatherDisplay:10.37,2013-05-20 15:26:00,
2013-05-20 10:27:00,67.3,45.8,28.44,South,180,5.8,5.8,46,0.00,CLR,,0.45,WeatherDisplay:10.37,2013-05-20 15:27:00,
2013-05-20 10:29:00,67.3,45.8,28.44,SSE,158,8.7,8.7,46,0.00,CLR,,0.45,WeatherDisplay:10.37,2013-05-20 15:29:00,
2013-05-20 10:30:00,67.6,46.7,28.44,SW,216,3.0,9.0,47,0.00,CLR,,0.45,WeatherDisplay:10.37,2013-05-20 15:30:00,
2013-05-20 10:31:00,68.4,47.9,28.44,SW,225,3.8,3.8,48,0.00,CLR,,0.45,WeatherDisplay:10.37,2013-05-20 15:31:00,
2013-05-20 10:32:00,68.4,47.3,28.44,South,180,6.0,6.0,47,0.00,CLR,,0.45,WeatherDisplay:10.37,2013-05-20 15:32:00,
2013-05-20 10:34:00,68.4,46.2,28.44,WSW,248,5.8,5.8,45,0.00,CLR,,0.45,WeatherDisplay:10.37,2013-05-20 15:34:00,
2013-05-20 10:35:00,68.2,46.0,28.44,SSW,202,8.1,8.1,45,0.00,CLR,,0.45,WeatherDisplay:10.37,2013-05-20 15:35:00,
2013-05-20 10:36:00,68.4,46.8,28.44,NW,315,4.6,4.6,46,0.00,CLR,,0.45,WeatherDisplay:10.37,2013-05-20 15:36:00,
2013-05-20 10:37:00,68.9,46.7,28.44,SSW,202,4.0,4.0,45,0.00,CLR,,0.45,WeatherDisplay:10.37,2013-05-20 15:37:00,
2013-05-20 10:40:00,68.7,46.5,28.41,SSE,158,3.5,4.3,45,0.00,CLR,,0.45,WeatherDisplay:10.37,2013-05-20 15:40:00,
2013-05-20 10:42:00,67.8,45.7,28.41,SSW,202,5.8,5.8,45,0.00,CLR,,0.45,WeatherDisplay:10.37,2013-05-20 15:42:00,
2013-05-20 10:43:00,68.2,47.2,28.41,SSW,202,6.9,6.9,47,0.00,CLR,,0.45,WeatherDisplay:10.37,2013-05-20 15:43:00,
2013-05-20 10:45:00,68.9,47.3,28.41,WSW,248,5.9,5.9,46,0.00,CLR,,0.45,WeatherDisplay:10.37,2013-05-20 15:45:00,
2013-05-20 10:46:00,69.1,46.2,28.41,West,270,6.9,6.9,44,0.00,CLR,,0.45,WeatherDisplay:10.37,2013-05-20 15:46:00,
2013-05-20 10:48:00,68.9,46.1,28.41,SSE,158,5.6,5.6,44,0.00,CLR,,0.45,WeatherDisplay:10.37,2013-05-20 15:48:00,
2013-05-20 10:50:00,68.5,44.5,28.41,South,180,5.8,5.8,42,0.00,CLR,,0.45,WeatherDisplay:10.37,2013-05-20 15:50:00,
2013-05-20 10:51:00,68.4,44.4,28.41,SSE,158,9.2,9.2,42,0.00,CLR,,0.45,WeatherDisplay:10.37,2013-05-20 15:51:00,
2013-05-20 10:53:00,68.9,46.1,28.41,SSW,202,8.1,8.1,44,0.00,CLR,,0.45,WeatherDisplay:10.37,2013-05-20 15:53:00,
2013-05-20 10:54:00,68.9,46.1,28.41,SSW,202,8.1,8.1,44,0.00,CLR,,0.45,WeatherDisplay:10.37,2013-05-20 15:54:00,
2013-05-20 10:56:00,69.1,46.2,28.44,WSW,248,4.6,4.6,44,0.00,CLR,,0.45,WeatherDisplay:10.37,2013-05-20 15:56:00,
2013-05-20 10:59:00,69.1,45.6,28.44,SW,225,5.8,5.8,43,0.00,CLR,,0.45,WeatherDisplay:10.37,2013-05-20 15:59:00,
2013-05-20 11:00:00,68.9,44.9,28.44,East,90,5.8,5.8,42,0.00,CLR,,0.45,WeatherDisplay:10.37,2013-05-20 16:00:00,
2013-05-20 11:01:00,68.7,44.7,28.44,ESE,112,5.8,5.8,42,0.00,CLR,,0.45,WeatherDisplay:10.37,2013-05-20 16:01:00,
2013-05-20 11:04:00,69.1,45.0,28.44,SW,225,4.7,4.7,42,0.00,CLR,,0.45,WeatherDisplay:10.37,2013-05-20 16:04:00,
2013-05-20 11:05:00,69.1,45.0,28.44,SW,225,4.6,4.6,42,0.00,CLR,,0.45,WeatherDisplay:10.37,2013-05-20 16:05:00,
2013-05-20 11:06:00,69.8,46.3,28.44,West,270,5.8,5.8,43,0.00,CLR,,0.45,WeatherDisplay:10.37,2013-05-20 16:06:00,
2013-05-20 11:07:00,70.0,45.8,28.44,SW,225,4.6,4.6,42,0.00,CLR,,0.45,WeatherDisplay:10.37,2013-05-20 16:07:00,
2013-05-20 11:10:00,70.3,46.8,28.41,SSW,202,5.8,5.8,43,0.00,CLR,,0.45,WeatherDisplay:10.37,2013-05-20 16:10:00,
2013-05-20 11:12:00,70.2,45.4,28.41,West,270,15.2,15.2,41,0.00,CLR,,0.45,WeatherDisplay:10.37,2013-05-20 16:12:00,
2013-05-20 11:14:00,69.1,44.4,28.41,WSW,248,9.2,9.2,41,0.00,CLR,,0.45,WeatherDisplay:10.37,2013-05-20 16:14:00,
2013-05-20 11:15:00,69.6,46.1,28.41,SW,225,5.8,5.8,43,0.00,CLR,,0.45,WeatherDisplay:10.37,2013-05-20 16:15:00,
2013-05-20 11:17:00,69.4,45.3,28.41,WNW,292,6.9,6.9,42,0.00,CLR,,0.45,WeatherDisplay:10.37,2013-05-20 16:17:00,
2013-05-20 11:19:00,70.5,46.3,28.41,SSW,202,4.6,4.6,42,0.00,CLR,,0.45,WeatherDisplay:10.37,2013-05-20 16:19:00,
2013-05-20 11:21:00,70.3,45.5,28.41,SE,135,5.8,5.8,41,0.00,CLR,,0.45,WeatherDisplay:10.37,2013-05-20 16:21:00,
2013-05-20 11:22:00,70.2,46.0,28.41,SW,225,8.1,8.1,42,0.00,CLR,,0.45,WeatherDisplay:10.37,2013-05-20 16:22:00,
2013-05-20 11:24:00,70.0,45.2,28.41,SSW,202,5.8,5.8,41,0.00,CLR,,0.45,WeatherDisplay:10.37,2013-05-20 16:24:00,
2013-05-20 11:26:00,70.5,46.3,28.41,NE,45,4.6,4.6,42,0.00,CLR,,0.45,WeatherDisplay:10.37,2013-05-20 16:26:00,
2013-05-20 11:27:00,70.5,45.7,28.41,North,0,4.6,4.6,41,0.00,CLR,,0.45,WeatherDisplay:10.37,2013-05-20 16:27:00,
2013-05-20 11:28:00,70.5,45.7,28.41,SSW,202,4.6,4.6,41,0.00,CLR,,0.45,WeatherDisplay:10.37,2013-05-20 16:28:00,
2013-05-20 11:30:00,71.4,46.5,28.41,SW,225,5.4,5.4,41,0.00,CLR,,0.45,WeatherDisplay:10.37,2013-05-20 16:30:00,
2013-05-20 11:31:00,71.2,45.7,28.41,SW,225,5.8,5.8,40,0.00,CLR,,0.45,WeatherDisplay:10.37,2013-05-20 16:31:00,
2013-05-20 11:32:00,70.9,45.3,28.41,SE,135,5.8,5.8,40,0.00,CLR,,0.45,WeatherDisplay:10.37,2013-05-20 16:32:00,
2013-05-20 11:33:00,70.9,45.3,28.41,SE,135,5.8,5.8,40,0.00,CLR,,0.45,WeatherDisplay:10.37,2013-05-20 16:33:00,
2013-05-20 11:35:00,70.5,44.4,28.41,SSW,202,10.4,10.4,39,0.00,CLR,,0.45,WeatherDisplay:10.37,2013-05-20 16:35:00,
2013-05-20 11:36:00,70.7,44.5,28.41,WSW,248,4.6,4.7,39,0.00,CLR,,0.45,WeatherDisplay:10.37,2013-05-20 16:36:00,
2013-05-20 11:37:00,70.5,44.4,28.41,SSW,202,6.9,6.9,39,0.00,CLR,,0.45,WeatherDisplay:10.37,2013-05-20 16:37:00,
2013-05-20 11:38:00,70.5,45.0,28.41,SSW,202,6.9,6.9,40,0.00,CLR,,0.45,WeatherDisplay:10.37,2013-05-20 16:38:00,
2013-05-20 11:39:00,70.5,44.4,28.41,SSE,158,7.8,7.8,39,0.00,CLR,,0.45,WeatherDisplay:10.37,2013-05-20 16:39:00,
2013-05-20 11:40:00,70.2,44.0,28.41,SSE,158,5.8,5.8,39,0.00,CLR,,0.45,WeatherDisplay:10.37,2013-05-20 16:40:00,
2013-05-20 11:41:00,70.2,43.4,28.41,NW,315,6.9,6.9,38,0.00,CLR,,0.45,WeatherDisplay:10.37,2013-05-20 16:41:00,
2013-05-20 11:43:00,70.5,45.0,28.41,WSW,248,4.9,4.9,40,0.00,CLR,,0.45,WeatherDisplay:10.37,2013-05-20 16:43:00,
2013-05-20 11:44:00,70.9,44.7,28.41,SW,225,5.8,5.8,39,0.00,CLR,,0.45,WeatherDisplay:10.37,2013-05-20 16:44:00,
2013-05-20 11:45:00,70.9,44.7,28.41,SW,225,8.1,8.1,39,0.00,CLR,,0.45,WeatherDisplay:10.37,2013-05-20 16:45:00,
2013-05-20 11:47:00,71.4,46.5,28.41,South,180,5.8,5.8,41,0.00,CLR,,0.45,WeatherDisplay:10.37,2013-05-20 16:47:00,
2013-05-20 11:49:00,72.0,46.3,28.41,SE,135,8.7,8.7,40,0.00,CLR,,0.45,WeatherDisplay:10.37,2013-05-20 16:49:00,
2013-05-20 11:50:00,69.8,44.4,28.41,SE,135,15.0,15.0,40,0.00,CLR,,0.45,WeatherDisplay:10.37,2013-05-20 16:50:00,
2013-05-20 11:53:00,69.4,41.3,28.41,SSE,158,8.5,8.5,36,0.00,CLR,,0.45,WeatherDisplay:10.37,2013-05-20 16:53:00,
2013-05-20 11:54:00,69.4,41.3,28.41,South,180,13.8,13.8,36,0.00,CLR,,0.45,WeatherDisplay:10.37,2013-05-20 16:54:00,
2013-05-20 11:57:00,70.2,44.0,28.41,SSW,202,5.8,5.8,39,0.00,CLR,,0.45,WeatherDisplay:10.37,2013-05-20 16:57:00,
2013-05-20 11:58:00,70.3,43.5,28.41,SW,225,5.8,5.8,38,0.00,CLR,,0.45,WeatherDisplay:10.37,2013-05-20 16:58:00,
2013-05-20 11:59:00,70.5,44.4,28.41,SSW,202,4.6,4.6,39,0.00,CLR,,0.45,WeatherDisplay:10.37,2013-05-20 16:59:00,
2013-05-20 12:01:00,70.9,45.3,28.41,ENE,68,6.9,6.9,40,0.00,CLR,,0.45,WeatherDisplay:10.37,2013-05-20 17:01:00,
2013-05-20 12:03:00,70.9,46.0,28.41,SSW,202,6.9,6.9,41,0.00,CLR,,0.45,WeatherDisplay:10.37,2013-05-20 17:03:00,
2013-05-20 12:04:00,71.2,45.0,28.41,SSW,202,5.8,5.8,39,0.00,CLR,,0.45,WeatherDisplay:10.37,2013-05-20 17:04:00,
2013-05-20 12:05:00,71.2,45.7,28.41,South,185,5.0,10.0,40,0.00,CLR,,0.45,WeatherDisplay:10.37,2013-05-20 17:05:00,
2013-05-20 12:06:00,71.1,44.8,28.41,West,270,13.8,13.8,39,0.00,CLR,,0.45,WeatherDisplay:10.37,2013-05-20 17:06:00,
2013-05-20 12:08:00,70.5,44.4,28.41,South,180,10.4,10.4,39,0.00,CLR,,0.45,WeatherDisplay:10.37,2013-05-20 17:08:00,
2013-05-20 12:09:00,71.1,45.5,28.41,East,90,10.4,10.4,40,0.00,CLR,,0.45,WeatherDisplay:10.37,2013-05-20 17:09:00,
2013-05-20 12:10:00,71.1,45.6,28.41,South,174,2.0,14.0,40,0.00,CLR,,0.45,WeatherDisplay:10.37,2013-05-20 17:10:00,
2013-05-20 12:11:00,70.7,44.5,28.41,SSW,202,20.7,20.7,39,0.00,CLR,,0.45,WeatherDisplay:10.37,2013-05-20 17:11:00,
2013-05-20 12:14:00,69.6,44.2,28.41,South,180,9.2,9.2,40,0.00,CLR,,0.45,WeatherDisplay:10.37,2013-05-20 17:14:00,
2013-05-20 12:15:00,69.8,45.0,28.41,South,184,7.0,21.0,41,0.00,CLR,,0.45,WeatherDisplay:10.37,2013-05-20 17:15:00,
2013-05-20 12:16:00,70.2,44.0,28.41,SSW,202,10.4,10.4,39,0.00,CLR,,0.45,WeatherDisplay:10.37,2013-05-20 17:16:00,
2013-05-20 12:19:00,70.7,45.2,28.41,SSE,158,17.5,17.5,40,0.00,CLR,,0.45,WeatherDisplay:10.37,2013-05-20 17:19:00,
2013-05-20 12:20:00,69.3,42.6,28.41,West,270,24.2,24.2,38,0.00,CLR,,0.45,WeatherDisplay:10.37,2013-05-20 17:20:00,
2013-05-20 12:21:00,70.3,44.9,28.41,SSW,202,5.8,5.8,40,0.00,CLR,,0.45,WeatherDisplay:10.37,2013-05-20 17:21:00,
2013-05-20 12:22:00,70.3,44.9,28.41,SSE,158,5.8,5.8,40,0.00,CLR,,0.45,WeatherDisplay:10.37,2013-05-20 17:22:00,
2013-05-20 12:24:00,70.3,44.2,28.41,WSW,248,9.2,9.2,39,0.00,CLR,,0.45,WeatherDisplay:10.37,2013-05-20 17:24:00,
2013-05-20 12:25:00,69.6,41.5,28.41,SSE,158,20.8,20.8,36,0.00,CLR,,0.45,WeatherDisplay:10.37,2013-05-20 17:25:00,
2013-05-20 12:26:00,69.6,41.5,28.41,SSE,158,25.3,25.3,36,0.00,CLR,,0.45,WeatherDisplay:10.37,2013-05-20 17:26:00,
2013-05-20 12:27:00,68.4,40.4,28.41,SSE,158,25.3,25.3,36,0.00,CLR,,0.45,WeatherDisplay:10.37,2013-05-20 17:27:00,
2013-05-20 12:29:00,69.3,42.6,28.41,WSW,248,6.9,6.9,38,0.00,CLR,,0.45,WeatherDisplay:10.37,2013-05-20 17:29:00,
2013-05-20 12:31:00,69.8,43.7,28.41,South,180,5.8,5.8,39,0.00,CLR,,0.45,WeatherDisplay:10.37,2013-05-20 17:31:00,
2013-05-20 12:32:00,70.0,43.9,28.41,WSW,248,6.9,6.9,39,0.00,CLR,,0.45,WeatherDisplay:10.37,2013-05-20 17:32:00,
2013-05-20 12:33:00,70.3,44.2,28.41,WSW,248,6.0,6.0,39,0.00,CLR,,0.45,WeatherDisplay:10.37,2013-05-20 17:33:00,
2013-05-20 12:34:00,70.3,42.8,28.41,SW,225,6.9,6.9,37,0.00,CLR,,0.45,WeatherDisplay:10.37,2013-05-20 17:34:00,
2013-05-20 12:36:00,70.3,43.5,28.41,WSW,248,12.7,12.7,38,0.00,CLR,,0.45,WeatherDisplay:10.37,2013-05-20 17:36:00,
2013-05-20 12:37:00,70.3,43.5,28.41,South,180,12.7,12.7,38,0.00,CLR,,0.45,WeatherDisplay:10.37,2013-05-20 17:37:00,
2013-05-20 12:38:00,70.5,43.7,28.41,South,180,5.8,5.8,38,0.00,CLR,,0.45,WeatherDisplay:10.37,2013-05-20 17:38:00,
2013-05-20 12:40:00,70.5,43.0,28.41,SSW,202,8.1,8.1,37,0.00,CLR,,0.45,WeatherDisplay:10.37,2013-05-20 17:40:00,
2013-05-20 12:41:00,70.5,44.4,28.41,NW,315,6.9,6.9,39,0.00,CLR,,0.45,WeatherDisplay:10.37,2013-05-20 17:41:00,
2013-05-20 12:42:00,70.3,42.8,28.41,SSE,158,7.6,7.6,37,0.00,CLR,,0.45,WeatherDisplay:10.37,2013-05-20 17:42:00,
2013-05-20 12:43:00,70.3,42.8,28.41,WSW,248,9.2,9.2,37,0.00,CLR,,0.45,WeatherDisplay:10.37,2013-05-20 17:43:00,
2013-05-20 12:45:00,71.1,44.8,28.41,South,180,7.4,7.4,39,0.00,CLR,,0.45,WeatherDisplay:10.37,2013-05-20 17:45:00,
2013-05-20 12:46:00,71.1,44.2,28.41,WNW,292,12.8,12.8,38,0.00,CLR,,0.45,WeatherDisplay:10.37,2013-05-20 17:46:00,
2013-05-20 12:48:00,69.8,43.7,28.41,SE,135,9.2,9.2,39,0.00,CLR,,0.45,WeatherDisplay:10.37,2013-05-20 17:48:00,
2013-05-20 12:50:00,70.0,43.2,28.41,SSE,158,18.7,18.7,38,0.00,CLR,,0.45,WeatherDisplay:10.37,2013-05-20 17:50:00,
2013-05-20 12:51:00,69.1,42.4,28.41,SE,135,29.9,29.9,38,0.00,CLR,,0.45,WeatherDisplay:10.37,2013-05-20 17:51:00,
2013-05-20 12:53:00,69.6,42.9,28.41,South,180,11.4,11.4,38,0.00,CLR,,0.45,WeatherDisplay:10.37,2013-05-20 17:53:00,
2013-05-20 12:54:00,69.3,43.2,28.41,SSW,202,9.2,9.2,39,0.00,CLR,,0.45,WeatherDisplay:10.37,2013-05-20 17:54:00,
2013-05-20 12:55:00,69.8,44.4,28.41,ESE,112,9.0,9.0,40,0.00,CLR,,0.45,WeatherDisplay:10.37,2013-05-20 17:55:00,
2013-05-20 12:57:00,69.6,44.2,28.41,South,180,10.4,10.4,40,0.00,CLR,,0.45,WeatherDisplay:10.37,2013-05-20 17:57:00,
2013-05-20 12:58:00,69.8,44.4,28.41,WSW,248,5.8,5.8,40,0.00,CLR,,0.45,WeatherDisplay:10.37,2013-05-20 17:58:00,
2013-05-20 12:59:00,69.8,44.4,28.41,SSE,158,4.9,4.9,40,0.00,CLR,,0.45,WeatherDisplay:10.37,2013-05-20 17:59:00,
2013-05-20 13:01:00,69.8,44.4,28.41,West,270,13.8,13.8,40,0.00,CLR,,0.45,WeatherDisplay:10.37,2013-05-20 18:01:00,
2013-05-20 13:02:00,69.4,44.7,28.41,SSW,202,8.1,8.1,41,0.00,CLR,,0.45,WeatherDisplay:10.37,2013-05-20 18:02:00,
2013-05-20 13:04:00,70.2,45.4,28.41,South,180,13.8,13.8,41,0.00,CLR,,0.45,WeatherDisplay:10.37,2013-05-20 18:04:00,
2013-05-20 13:05:00,70.1,45.3,28.41,SSW,204,6.0,14.0,41,0.00,CLR,,0.45,WeatherDisplay:10.37,2013-05-20 18:05:00,
2013-05-20 13:06:00,69.6,44.2,28.41,SE,135,12.7,12.7,40,0.00,CLR,,0.45,WeatherDisplay:10.37,2013-05-20 18:06:00,
2013-05-20 13:09:00,69.3,43.9,28.41,SSE,158,12.8,12.8,40,0.00,CLR,,0.45,WeatherDisplay:10.37,2013-05-20 18:09:00,
2013-05-20 13:10:00,69.1,43.7,28.41,WSW,248,17.3,17.3,40,0.00,CLR,,0.45,WeatherDisplay:10.37,2013-05-20 18:10:00,
2013-05-20 13:11:00,69.8,45.0,28.41,NE,45,10.4,10.4,41,0.00,CLR,,0.45,WeatherDisplay:10.37,2013-05-20 18:11:00,
2013-05-20 13:12:00,70.9,45.3,28.41,SW,225,5.6,5.6,40,0.00,CLR,,0.45,WeatherDisplay:10.37,2013-05-20 18:12:00,
2013-05-20 13:14:00,70.5,42.3,28.41,SSE,158,15.0,15.0,36,0.00,CLR,,0.45,WeatherDisplay:10.37,2013-05-20 18:14:00,
2013-05-20 13:15:00,70.5,42.3,28.41,SSE,158,9.2,9.2,36,0.00,CLR,,0.45,WeatherDisplay:10.37,2013-05-20 18:15:00,
2013-05-20 13:17:00,70.2,43.4,28.41,SSW,202,11.5,11.5,38,0.00,CLR,,0.45,WeatherDisplay:10.37,2013-05-20 18:17:00,
2013-05-20 13:18:00,70.0,42.5,28.41,South,180,15.4,15.4,37,0.00,CLR,,0.45,WeatherDisplay:10.37,2013-05-20 18:18:00,
2013-05-20 13:19:00,69.1,43.1,28.41,South,180,15.0,15.0,39,0.00,CLR,,0.45,WeatherDisplay:10.37,2013-05-20 18:19:00,
2013-05-20 13:20:00,69.1,43.1,28.41,WSW,248,11.5,11.5,39,0.00,CLR,,0.45,WeatherDisplay:10.37,2013-05-20 18:20:00,
2013-05-20 13:23:00,70.2,44.7,28.41,SSW,202,5.8,5.8,40,0.00,CLR,,0.45,WeatherDisplay:10.37,2013-05-20 18:23:00,
2013-05-20 13:25:00,70.7,45.2,28.41,SW,225,5.8,5.8,40,0.00,CLR,,0.45,WeatherDisplay:10.37,2013-05-20 18:25:00,
2013-05-20 13:29:00,71.4,45.2,28.41,NNE,22,9.2,9.2,39,0.00,CLR,,0.45,WeatherDisplay:10.37,2013-05-20 18:29:00,
2013-05-20 13:30:00,71.4,45.2,28.41,SW,225,9.2,9.2,39,0.00,CLR,,0.45,WeatherDisplay:10.37,2013-05-20 18:30:00,
2013-05-20 13:31:00,71.4,45.8,28.41,SSE,158,6.9,6.9,40,0.00,CLR,,0.45,WeatherDisplay:10.37,2013-05-20 18:31:00,
2013-05-20 13:34:00,70.5,45.0,28.41,SSW,202,8.1,8.1,40,0.00,CLR,,0.45,WeatherDisplay:10.37,2013-05-20 18:34:00,
2013-05-20 13:35:00,70.9,45.3,28.41,South,180,9.2,9.2,40,0.00,CLR,,0.45,WeatherDisplay:10.37,2013-05-20 18:35:00,
2013-05-20 13:36:00,70.7,45.8,28.41,SSW,202,15.4,15.4,41,0.00,CLR,,0.45,WeatherDisplay:10.37,2013-05-20 18:36:00,
2013-05-20 13:40:00,69.4,45.3,28.41,SSE,158,15.0,15.0,42,0.00,CLR,,0.45,WeatherDisplay:10.37,2013-05-20 18:40:00,
2013-05-20 13:41:00,69.3,44.5,28.41,SSW,202,13.8,13.8,41,0.00,CLR,,0.45,WeatherDisplay:10.37,2013-05-20 18:41:00,
2013-05-20 13:42:00,70.0,45.8,28.41,SSW,202,13.8,13.8,42,0.00,CLR,,0.45,WeatherDisplay:10.37,2013-05-20 18:42:00,
2013-05-20 13:45:00,69.6,44.2,28.41,South,180,17.3,17.3,40,0.00,CLR,,0.45,WeatherDisplay:10.37,2013-05-20 18:45:00,
2013-05-20 13:46:00,69.4,45.3,28.41,WSW,248,10.4,10.4,42,0.00,CLR,,0.45,WeatherDisplay:10.37,2013-05-20 18:46:00,
2013-05-20 13:47:00,70.0,45.8,28.41,South,180,10.4,10.4,42,0.00,CLR,,0.45,WeatherDisplay:10.37,2013-05-20 18:47:00,
2013-05-20 13:50:00,70.5,45.7,28.41,SSW,202,17.3,17.3,41,0.00,CLR,,0.45,WeatherDisplay:10.37,2013-05-20 18:50:00,
2013-05-20 13:51:00,70.5,45.7,28.41,West,270,17.3,17.3,41,0.00,CLR,,0.45,WeatherDisplay:10.37,2013-05-20 18:51:00,
2013-05-20 13:53:00,71.1,45.5,28.41,West,270,8.1,8.1,40,0.00,CLR,,0.45,WeatherDisplay:10.37,2013-05-20 18:53:00,
2013-05-20 13:55:00,71.1,44.8,28.41,WSW,248,6.9,6.9,39,0.00,CLR,,0.45,WeatherDisplay:10.37,2013-05-20 18:55:00,
2013-05-20 13:56:00,71.1,44.2,28.41,SSE,158,7.6,7.6,38,0.00,CLR,,0.45,WeatherDisplay:10.37,2013-05-20 18:56:00,
2013-05-20 13:59:00,71.2,45.7,28.41,SW,225,5.8,5.8,40,0.00,CLR,,0.45,WeatherDisplay:10.37,2013-05-20 18:59:00,
2013-05-20 14:01:00,71.6,46.0,28.41,WSW,248,5.8,5.8,40,0.00,CLR,,0.45,WeatherDisplay:10.37,2013-05-20 19:01:00,
2013-05-20 14:02:00,71.8,45.5,28.41,SSE,158,8.5,8.5,39,0.00,CLR,,0.45,WeatherDisplay:10.37,2013-05-20 19:02:00,
2013-05-20 14:04:00,70.5,45.0,28.41,SSE,158,19.6,19.6,40,0.00,CLR,,0.45,WeatherDisplay:10.37,2013-05-20 19:04:00,
2013-05-20 14:06:00,70.0,44.5,28.41,West,270,28.8,28.8,40,0.00,CLR,,0.45,WeatherDisplay:10.37,2013-05-20 19:06:00,
2013-05-20 14:07:00,70.0,44.5,28.41,West,270,28.8,28.8,40,0.00,CLR,,0.45,WeatherDisplay:10.37,2013-05-20 19:07:00,
2013-05-20 14:10:00,70.7,45.8,28.41,SW,225,9.2,10.5,41,0.00,CLR,,0.45,WeatherDisplay:10.37,2013-05-20 19:10:00,
2013-05-20 14:11:00,70.0,45.2,28.41,SSW,202,15.0,15.0,41,0.00,CLR,,0.45,WeatherDisplay:10.37,2013-05-20 19:11:00,
2013-05-20 14:12:00,70.2,44.7,28.41,WSW,248,9.2,9.2,40,0.00,CLR,,0.45,WeatherDisplay:10.37,2013-05-20 19:12:00,
2013-05-20 14:13:00,70.3,44.9,28.41,South,180,17.3,17.3,40,0.00,CLR,,0.45,WeatherDisplay:10.37,2013-05-20 19:13:00,
2013-05-20 14:15:00,69.1,43.7,28.41,SSE,158,19.6,19.6,40,0.00,CLR,,0.45,WeatherDisplay:10.37,2013-05-20 19:15:00,
2013-05-20 14:16:00,68.7,44.1,28.41,South,180,19.9,19.9,41,0.00,CLR,,0.45,WeatherDisplay:10.37,2013-05-20 19:16:00,
2013-05-20 14:17:00,68.9,44.9,28.41,SSE,158,19.6,19.6,42,0.00,CLR,,0.45,WeatherDisplay:10.37,2013-05-20 19:17:00,
2013-05-20 14:20:00,69.1,45.0,28.41,SSE,158,24.2,24.2,42,0.00,CLR,,0.45,WeatherDisplay:10.37,2013-05-20 19:20:00,
2013-05-20 14:22:00,69.6,45.5,28.41,West,270,11.5,11.5,42,0.00,CLR,,0.45,WeatherDisplay:10.37,2013-05-20 19:22:00,
2013-05-20 14:23:00,70.3,44.9,28.41,South,180,9.2,9.2,40,0.00,CLR,,0.45,WeatherDisplay:10.37,2013-05-20 19:23:00,
2013-05-20 14:25:00,70.3,44.9,28.41,West,270,12.7,12.7,40,0.00,CLR,,0.45,WeatherDisplay:10.37,2013-05-20 19:25:00,
2013-05-20 14:26:00,70.0,45.2,28.41,SSE,158,10.4,10.4,41,0.00,CLR,,0.45,WeatherDisplay:10.37,2013-05-20 19:26:00,
2013-05-20 14:27:00,69.6,44.9,28.41,SSE,158,10.4,10.4,41,0.00,CLR,,0.45,WeatherDisplay:10.37,2013-05-20 19:27:00,
2013-05-20 14:29:00,70.2,46.0,28.41,SSE,158,5.8,5.8,42,0.00,CLR,,0.45,WeatherDisplay:10.37,2013-05-20 19:29:00,
2013-05-20 14:30:00,69.1,45.0,28.41,SSW,202,28.8,28.8,42,0.00,CLR,,0.45,WeatherDisplay:10.37,2013-05-20 19:30:00,
2013-05-20 14:31:00,69.1,45.0,28.41,SE,135,10.4,10.4,42,0.00,CLR,,0.45,WeatherDisplay:10.37,2013-05-20 19:31:00,
2013-05-20 14:33:00,69.4,46.0,28.41,SSW,202,15.0,15.0,43,0.00,CLR,,0.45,WeatherDisplay:10.37,2013-05-20 19:33:00,
2013-05-20 14:34:00,69.4,45.3,28.41,SSW,202,24.2,24.2,42,0.00,CLR,,0.45,WeatherDisplay:10.37,2013-05-20 19:34:00,
2013-05-20 14:35:00,69.4,45.3,28.41,South,188,10.0,24.0,42,0.00,CLR,,0.45,WeatherDisplay:10.37,2013-05-20 19:35:00,
2013-05-20 14:36:00,69.4,44.7,28.41,SW,225,10.4,10.4,41,0.00,CLR,,0.45,WeatherDisplay:10.37,2013-05-20 19:36:00,
2013-05-20 14:38:00,69.6,44.9,28.41,SSE,158,10.0,10.0,41,0.00,CLR,,0.45,WeatherDisplay:10.37,2013-05-20 19:38:00,
2013-05-20 14:39:00,69.4,45.3,28.41,SW,225,10.4,10.4,42,0.00,CLR,,0.45,WeatherDisplay:10.37,2013-05-20 19:39:00,
2013-05-20 14:40:00,69.5,45.4,28.41,SSW,196,7.0,11.0,42,0.00,CLR,,0.45,WeatherDisplay:10.37,2013-05-20 19:40:00,
2013-05-20 14:41:00,69.8,46.9,28.41,SSW,202,16.1,16.1,44,0.00,CLR,,0.45,WeatherDisplay:10.37,2013-05-20 19:41:00,
2013-05-20 14:42:00,69.8,46.9,28.41,SSW,202,12.7,12.7,44,0.00,CLR,,0.45,WeatherDisplay:10.37,2013-05-20 19:42:00,
2013-05-20 14:44:00,69.3,45.8,28.41,WSW,248,10.9,10.9,43,0.00,CLR,,0.45,WeatherDisplay:10.37,2013-05-20 19:44:00,
2013-05-20 14:45:00,69.6,46.7,28.41,South,180,11.5,11.5,44,0.00,CLR,,0.45,WeatherDisplay:10.37,2013-05-20 19:45:00,
2013-05-20 14:46:00,70.0,46.4,28.41,South,180,8.1,8.1,43,0.00,CLR,,0.45,WeatherDisplay:10.37,2013-05-20 19:46:00,
2013-05-20 14:47:00,70.0,46.4,28.41,SSE,158,20.6,20.6,43,0.00,CLR,,0.45,WeatherDisplay:10.37,2013-05-20 19:47:00,
2013-05-20 14:50:00,70.0,45.8,28.41,South,180,8.1,8.1,42,0.00,CLR,,0.45,WeatherDisplay:10.37,2013-05-20 19:50:00,
2013-05-20 14:51:00,70.0,46.4,28.41,South,180,10.4,10.4,43,0.00,CLR,,0.45,WeatherDisplay:10.37,2013-05-20 19:51:00,
2013-05-20 14:52:00,70.0,46.4,28.41,SW,225,8.1,8.1,43,0.00,CLR,,0.45,WeatherDisplay:10.37,2013-05-20 19:52:00,
2013-05-20 14:55:00,69.4,46.0,28.41,SSW,202,5.8,5.8,43,0.00,CLR,,0.45,WeatherDisplay:10.37,2013-05-20 19:55:00,
2013-05-20 14:56:00,68.9,44.9,28.41,WSW,248,22.1,22.1,42,0.00,CLR,,0.45,WeatherDisplay:10.37,2013-05-20 19:56:00,
2013-05-20 14:57:00,68.9,44.9,28.41,SSW,202,21.9,21.9,42,0.00,CLR,,0.45,WeatherDisplay:10.37,2013-05-20 19:57:00,
2013-05-20 15:00:00,68.5,45.1,28.41,South,180,9.2,9.2,43,0.00,CLR,,0.45,WeatherDisplay:10.37,2013-05-20 20:00:00,
2013-05-20 15:02:00,68.7,45.3,28.41,SSE,158,9.7,9.7,43,0.00,CLR,,0.45,WeatherDisplay:10.37,2013-05-20 20:02:00,
2013-05-20 15:05:00,69.3,45.2,28.41,South,180,17.0,17.0,42,0.00,CLR,,0.45,WeatherDisplay:10.37,2013-05-20 20:05:00,
2013-05-20 15:06:00,69.3,45.2,28.41,SSE,158,18.4,18.4,42,0.00,CLR,,0.45,WeatherDisplay:10.37,2013-05-20 20:06:00,
2013-05-20 15:07:00,69.3,44.5,28.41,SSE,158,10.4,10.4,41,0.00,CLR,,0.45,WeatherDisplay:10.37,2013-05-20 20:07:00,
2013-05-20 15:11:00,69.6,45.5,28.41,South,180,10.4,10.4,42,0.00,CLR,,0.45,WeatherDisplay:10.37,2013-05-20 20:11:00,
2013-05-20 15:12:00,69.6,45.5,28.41,SE,135,7.8,7.8,42,0.00,CLR,,0.45,WeatherDisplay:10.37,2013-05-20 20:12:00,
2013-05-20 15:13:00,70.5,46.3,28.41,SSW,202,11.5,11.5,42,0.00,CLR,,0.45,WeatherDisplay:10.37,2013-05-20 20:13:00,
2013-05-20 15:15:00,70.7,45.2,28.41,South,189,7.0,12.0,40,0.00,CLR,,0.45,WeatherDisplay:10.37,2013-05-20 20:15:00,
2013-05-20 15:17:00,70.5,45.0,28.41,South,180,16.3,16.3,40,0.00,CLR,,0.45,WeatherDisplay:10.37,2013-05-20 20:17:00,
2013-05-20 15:19:00,70.0,44.5,28.41,SW,225,13.8,13.8,40,0.00,CLR,,0.45,WeatherDisplay:10.37,2013-05-20 20:19:00,
2013-05-20 15:20:00,70.2,44.7,28.41,WSW,248,10.4,10.4,40,0.00,CLR,,0.45,WeatherDisplay:10.37,2013-05-20 20:20:00,
2013-05-20 15:22:00,70.7,45.2,28.41,South,180,11.5,11.5,40,0.00,CLR,,0.45,WeatherDisplay:10.37,2013-05-20 20:22:00,
2013-05-20 15:23:00,71.1,46.2,28.41,SW,225,8.1,8.1,41,0.00,CLR,,0.45,WeatherDisplay:10.37,2013-05-20 20:23:00,
2013-05-20 15:24:00,71.1,46.2,28.41,SSW,202,7.6,7.6,41,0.00,CLR,,0.45,WeatherDisplay:10.37,2013-05-20 20:24:00,
2013-05-20 15:26:00,70.7,44.5,28.41,WSW,248,19.6,19.6,39,0.00,CLR,,0.45,WeatherDisplay:10.37,2013-05-20 20:26:00,
2013-05-20 15:28:00,70.2,44.7,28.41,SSE,158,17.3,17.3,40,0.00,CLR,,0.45,WeatherDisplay:10.37,2013-05-20 20:28:00,
2013-05-20 15:30:00,70.3,45.5,28.41,SSE,158,6.9,6.9,41,0.00,CLR,,0.45,WeatherDisplay:10.37,2013-05-20 20:30:00,
2013-05-20 15:31:00,70.9,45.3,28.41,South,180,6.9,6.9,40,0.00,CLR,,0.45,WeatherDisplay:10.37,2013-05-20 20:31:00,
2013-05-20 15:33:00,71.6,46.6,28.41,SSW,202,6.9,6.9,41,0.00,CLR,,0.45,WeatherDisplay:10.37,2013-05-20 20:33:00,
2013-05-20 15:36:00,71.1,45.5,28.41,West,270,9.2,9.2,40,0.00,CLR,,0.45,WeatherDisplay:10.37,2013-05-20 20:36:00,
2013-05-20 15:38:00,70.7,45.2,28.41,SSE,158,24.2,24.2,40,0.00,CLR,,0.45,WeatherDisplay:10.37,2013-05-20 20:38:00,
2013-05-20 15:39:00,70.3,44.9,28.41,South,180,25.3,25.3,40,0.00,CLR,,0.45,WeatherDisplay:10.37,2013-05-20 20:39:00,
2013-05-20 15:41:00,70.2,44.7,28.41,SSW,202,8.1,8.1,40,0.00,CLR,,0.45,WeatherDisplay:10.37,2013-05-20 20:41:00,
2013-05-20 15:43:00,70.5,45.0,28.41,SSW,202,15.0,15.0,40,0.00,CLR,,0.45,WeatherDisplay:10.37,2013-05-20 20:43:00,
2013-05-20 15:44:00,70.3,42.8,28.41,SW,225,19.6,19.6,37,0.00,CLR,,0.45,WeatherDisplay:10.37,2013-05-20 20:44:00,
2013-05-20 15:46:00,70.0,44.5,28.41,SSW,202,20.7,20.7,40,0.00,CLR,,0.45,WeatherDisplay:10.37,2013-05-20 20:46:00,
2013-05-20 15:47:00,70.0,44.5,28.41,SSW,202,20.7,20.7,40,0.00,CLR,,0.45,WeatherDisplay:10.37,2013-05-20 20:47:00,
2013-05-20 15:48:00,69.8,43.7,28.41,South,180,13.8,13.8,39,0.00,CLR,,0.45,WeatherDisplay:10.37,2013-05-20 20:48:00,
2013-05-20 15:50:00,69.1,43.7,28.41,NW,315,13.8,13.8,40,0.00,CLR,,0.45,WeatherDisplay:10.37,2013-05-20 20:50:00,
2013-05-20 15:51:00,69.4,44.1,28.41,South,180,6.4,6.4,40,0.00,CLR,,0.45,WeatherDisplay:10.37,2013-05-20 20:51:00,
2013-05-20 15:52:00,69.4,44.1,28.41,South,180,6.4,6.4,40,0.00,CLR,,0.45,WeatherDisplay:10.37,2013-05-20 20:52:00,
2013-05-20 15:54:00,70.3,44.9,28.41,South,180,7.1,7.1,40,0.00,CLR,,0.45,WeatherDisplay:10.37,2013-05-20 20:54:00,
2013-05-20 15:55:00,70.3,44.9,28.41,SSW,202,3.0,9.0,40,0.00,CLR,,0.45,WeatherDisplay:10.37,2013-05-20 20:55:00,
2013-05-20 15:56:00,70.5,44.4,28.41,SSW,202,9.4,9.4,39,0.00,CLR,,0.45,WeatherDisplay:10.37,2013-05-20 20:56:00,
2013-05-20 15:57:00,70.5,44.4,28.41,South,180,9.2,9.2,39,0.00,CLR,,0.45,WeatherDisplay:10.37,2013-05-20 20:57:00,
2013-05-20 16:00:00,71.4,45.8,28.41,SW,225,5.8,5.8,40,0.00,CLR,,0.45,WeatherDisplay:10.37,2013-05-20 21:00:00,
2013-05-20 16:02:00,71.4,44.5,28.41,WSW,248,9.2,9.2,38,0.00,CLR,,0.45,WeatherDisplay:10.37,2013-05-20 21:02:00,
2013-05-20 16:05:00,71.1,44.8,28.41,SSW,202,15.4,15.4,39,0.00,CLR,,0.45,WeatherDisplay:10.37,2013-05-20 21:05:00,
2013-05-20 16:07:00,70.9,44.0,28.41,SE,135,10.4,10.4,38,0.00,CLR,,0.45,WeatherDisplay:10.37,2013-05-20 21:07:00,
2013-05-20 16:08:00,71.1,44.8,28.41,SSW,202,10.4,10.4,39,0.00,CLR,,0.45,WeatherDisplay:10.37,2013-05-20 21:08:00,
2013-05-20 16:10:00,71.2,45.0,28.41,SW,225,8.1,8.1,39,0.00,CLR,,0.45,WeatherDisplay:10.37,2013-05-20 21:10:00,
2013-05-20 16:11:00,71.1,44.2,28.41,SSW,202,8.1,8.1,38,0.00,CLR,,0.45,WeatherDisplay:10.37,2013-05-20 21:11:00,
2013-05-20 16:12:00,71.2,44.3,28.41,WSW,248,6.9,6.9,38,0.00,CLR,,0.45,WeatherDisplay:10.37,2013-05-20 21:12:00,
2013-05-20 16:13:00,71.4,44.5,28.41,West,270,6.9,6.9,38,0.00,CLR,,0.45,WeatherDisplay:10.37,2013-05-20 21:13:00,
2013-05-20 16:16:00,71.4,43.8,28.41,WNW,292,9.2,9.2,37,0.00,CLR,,0.45,WeatherDisplay:10.37,2013-05-20 21:16:00,
2013-05-20 16:17:00,71.4,44.5,28.41,SSW,202,6.9,6.9,38,0.00,CLR,,0.45,WeatherDisplay:10.37,2013-05-20 21:17:00,
2013-05-20 16:18:00,71.8,44.8,28.41,SSW,202,10.4,10.4,38,0.00,CLR,,0.45,WeatherDisplay:10.37,2013-05-20 21:18:00,
2013-05-20 16:19:00,71.8,44.8,28.41,SSW,202,10.4,10.4,38,0.00,CLR,,0.45,WeatherDisplay:10.37,2013-05-20 21:19:00,
2013-05-20 16:21:00,71.8,44.8,28.41,SSW,202,9.2,9.2,38,0.00,CLR,,0.45,WeatherDisplay:10.37,2013-05-20 21:21:00,
2013-05-20 16:22:00,71.8,44.8,28.41,North,0,6.9,6.9,38,0.00,CLR,,0.45,WeatherDisplay:10.37,2013-05-20 21:22:00,
2013-05-20 16:24:00,71.2,44.3,28.38,SSE,158,11.5,11.5,38,0.00,CLR,,0.45,WeatherDisplay:10.37,2013-05-20 21:24:00,
2013-05-20 16:27:00,71.6,44.6,28.38,SSE,158,6.9,6.9,38,0.00,CLR,,0.45,WeatherDisplay:10.37,2013-05-20 21:27:00,
2013-05-20 16:30:00,71.2,43.6,28.38,SW,225,8.1,8.1,37,0.00,CLR,,0.45,WeatherDisplay:10.37,2013-05-20 21:30:00,
2013-05-20 16:32:00,72.0,45.6,28.38,SSW,202,5.8,5.8,39,0.00,CLR,,0.45,WeatherDisplay:10.37,2013-05-20 21:32:00,
2013-05-20 16:35:00,71.8,44.8,28.38,SSW,202,10.4,10.4,38,0.00,CLR,,0.45,WeatherDisplay:10.37,2013-05-20 21:35:00,
2013-05-20 16:36:00,71.4,44.5,28.38,North,0,8.1,8.1,38,0.00,CLR,,0.45,WeatherDisplay:10.37,2013-05-20 21:36:00,
2013-05-20 16:37:00,71.4,44.5,28.38,North,0,5.9,5.9,38,0.00,CLR,,0.45,WeatherDisplay:10.37,2013-05-20 21:37:00,
2013-05-20 16:38:00,71.2,44.3,28.38,SW,225,9.2,9.2,38,0.00,CLR,,0.45,WeatherDisplay:10.37,2013-05-20 21:38:00,
2013-05-20 16:40:00,70.9,42.6,28.38,SW,225,15.0,15.0,36,0.00,CLR,,0.45,WeatherDisplay:10.37,2013-05-20 21:40:00,
2013-05-20 16:41:00,70.7,42.4,28.38,SW,225,8.1,8.1,36,0.00,CLR,,0.45,WeatherDisplay:10.37,2013-05-20 21:41:00,
2013-05-20 16:42:00,70.9,43.3,28.38,SSW,202,9.2,9.2,37,0.00,CLR,,0.45,WeatherDisplay:10.37,2013-05-20 21:42:00,
2013-05-20 16:43:00,70.7,43.1,28.38,SSE,158,8.1,8.1,37,0.00,CLR,,0.45,WeatherDisplay:10.37,2013-05-20 21:43:00,
2013-05-20 16:45:00,70.2,44.0,28.38,NW,315,8.1,8.1,39,0.00,CLR,,0.45,WeatherDisplay:10.37,2013-05-20 21:45:00,
2013-05-20 16:46:00,70.2,43.4,28.38,West,270,6.2,6.2,38,0.00,CLR,,0.45,WeatherDisplay:10.37,2013-05-20 21:46:00,
2013-05-20 16:47:00,70.2,44.0,28.38,SW,225,5.8,5.8,39,0.00,CLR,,0.45,WeatherDisplay:10.37,2013-05-20 21:47:00,
2013-05-20 16:48:00,70.2,44.7,28.38,SSW,202,6.4,6.4,40,0.00,CLR,,0.45,WeatherDisplay:10.37,2013-05-20 21:48:00,
2013-05-20 16:49:00,70.0,44.5,28.38,East,90,6.9,6.9,40,0.00,CLR,,0.45,WeatherDisplay:10.37,2013-05-20 21:49:00,
2013-05-20 16:51:00,70.2,44.7,28.38,SSW,202,9.2,9.2,40,0.00,CLR,,0.45,WeatherDisplay:10.37,2013-05-20 21:51:00,
2013-05-20 16:53:00,70.0,44.5,28.38,WSW,248,5.8,5.9,40,0.00,CLR,,0.45,WeatherDisplay:10.37,2013-05-20 21:53:00,
2013-05-20 16:54:00,70.0,44.5,28.38,SSW,202,4.6,4.6,40,0.00,CLR,,0.45,WeatherDisplay:10.37,2013-05-20 21:54:00,
2013-05-20 16:56:00,70.2,45.4,28.38,SW,225,9.2,9.2,41,0.00,CLR,,0.45,WeatherDisplay:10.37,2013-05-20 21:56:00,
2013-05-20 16:57:00,70.3,44.9,28.38,WSW,248,6.9,6.9,40,0.00,CLR,,0.45,WeatherDisplay:10.37,2013-05-20 21:57:00,
2013-05-20 16:58:00,70.7,45.2,28.38,SW,225,6.9,6.9,40,0.00,CLR,,0.45,WeatherDisplay:10.37,2013-05-20 21:58:00,
2013-05-20 16:59:00,71.1,45.5,28.38,SW,225,8.1,8.1,40,0.00,CLR,,0.45,WeatherDisplay:10.37,2013-05-20 21:59:00,
2013-05-20 17:00:00,71.0,45.4,28.38,SW,224,6.0,10.0,40,0.00,CLR,,0.45,WeatherDisplay:10.37,2013-05-20 22:00:00,
2013-05-20 17:02:00,71.4,45.8,28.38,SSE,158,9.2,9.2,40,0.00,CLR,,0.45,WeatherDisplay:10.37,2013-05-20 22:02:00,
2013-05-20 17:04:00,71.8,44.1,28.38,SSW,202,8.1,8.1,37,0.00,CLR,,0.45,WeatherDisplay:10.37,2013-05-20 22:04:00,
2013-05-20 17:05:00,71.6,43.9,28.38,SW,225,8.1,8.1,37,0.00,CLR,,0.45,WeatherDisplay:10.37,2013-05-20 22:05:00,
2013-05-20 17:06:00,71.4,44.5,28.38,SSW,202,6.9,6.9,38,0.00,CLR,,0.45,WeatherDisplay:10.37,2013-05-20 22:06:00,
2013-05-20 17:07:00,71.2,43.6,28.38,SSW,202,7.4,7.4,37,0.00,CLR,,0.45,WeatherDisplay:10.37,2013-05-20 22:07:00,
2013-05-20 17:09:00,71.6,46.0,28.38,SSW,202,6.9,6.9,40,0.00,CLR,,0.45,WeatherDisplay:10.37,2013-05-20 22:09:00,
2013-05-20 17:10:00,71.6,46.0,28.38,SSE,158,6.9,6.9,40,0.00,CLR,,0.45,WeatherDisplay:10.37,2013-05-20 22:10:00,
2013-05-20 17:11:00,71.8,45.5,28.38,SSW,202,4.6,4.6,39,0.00,CLR,,0.45,WeatherDisplay:10.37,2013-05-20 22:11:00,
2013-05-20 17:12:00,72.0,46.3,28.38,SSE,158,4.6,4.6,40,0.00,CLR,,0.45,WeatherDisplay:10.37,2013-05-20 22:12:00,
2013-05-20 17:14:00,72.1,46.5,28.38,SE,135,6.9,6.9,40,0.00,CLR,,0.45,WeatherDisplay:10.37,2013-05-20 22:14:00,
2013-05-20 17:15:00,72.1,46.5,28.38,ESE,112,6.9,6.9,40,0.00,CLR,,0.45,WeatherDisplay:10.37,2013-05-20 22:15:00,
2013-05-20 17:16:00,72.0,45.6,28.38,SSE,158,5.8,5.8,39,0.00,CLR,,0.45,WeatherDisplay:10.37,2013-05-20 22:16:00,
2013-05-20 17:17:00,72.1,45.1,28.38,South,180,8.1,8.1,38,0.00,CLR,,0.45,WeatherDisplay:10.37,2013-05-20 22:17:00,
2013-05-20 17:20:00,72.0,45.6,28.38,South,184,5.0,8.0,39,0.00,CLR,,0.45,WeatherDisplay:10.37,2013-05-20 22:20:00,
2013-05-20 17:22:00,71.8,41.9,28.38,SW,225,10.4,10.4,34,0.00,CLR,,0.45,WeatherDisplay:10.37,2013-05-20 22:22:00,
2013-05-20 17:23:00,71.8,41.9,28.38,SW,225,8.1,8.1,34,0.00,CLR,,0.45,WeatherDisplay:10.37,2013-05-20 22:23:00,
2013-05-20 17:25:00,71.4,42.3,28.35,WSW,248,8.1,8.1,35,0.00,CLR,,0.45,WeatherDisplay:10.37,2013-05-20 22:25:00,
2013-05-20 17:27:00,71.1,41.3,28.35,South,180,8.1,8.1,34,0.00,CLR,,0.45,WeatherDisplay:10.37,2013-05-20 22:27:00,
2013-05-20 17:28:00,71.2,41.4,28.35,SSW,202,8.1,8.1,34,0.00,CLR,,0.45,WeatherDisplay:10.37,2013-05-20 22:28:00,
2013-05-20 17:31:00,71.1,41.3,28.35,South,180,6.9,6.9,34,0.00,CLR,,0.45,WeatherDisplay:10.37,2013-05-20 22:31:00,
2013-05-20 17:32:00,71.1,40.5,28.35,SSW,202,11.5,11.5,33,0.00,CLR,,0.45,WeatherDisplay:10.37,2013-05-20 22:32:00,
2013-05-20 17:33:00,71.1,40.5,28.35,WSW,248,11.5,11.5,33,0.00,CLR,,0.45,WeatherDisplay:10.37,2013-05-20 22:33:00,
2013-05-20 17:36:00,71.1,40.5,28.35,SSW,202,6.9,6.9,33,0.00,CLR,,0.45,WeatherDisplay:10.37,2013-05-20 22:36:00,
2013-05-20 17:37:00,71.1,40.5,28.35,SSW,202,5.8,5.8,33,0.00,CLR,,0.45,WeatherDisplay:10.37,2013-05-20 22:37:00,
2013-05-20 17:38:00,71.1,40.5,28.35,South,180,6.9,6.9,33,0.00,CLR,,0.45,WeatherDisplay:10.37,2013-05-20 22:38:00,
2013-05-20 17:41:00,70.5,40.0,28.38,NNW,338,8.1,8.1,33,0.00,CLR,,0.45,WeatherDisplay:10.37,2013-05-20 22:41:00,
2013-05-20 17:42:00,70.7,40.2,28.38,SE,135,5.9,5.9,33,0.00,CLR,,0.45,WeatherDisplay:10.37,2013-05-20 22:42:00,
2013-05-20 17:43:00,70.7,40.2,28.38,SSE,158,5.8,5.8,33,0.00,CLR,,0.45,WeatherDisplay:10.37,2013-05-20 22:43:00,
2013-05-20 17:47:00,71.1,41.3,28.38,SSW,202,5.8,5.8,34,0.00,CLR,,0.45,WeatherDisplay:10.37,2013-05-20 22:47:00,
2013-05-20 17:48:00,71.2,41.4,28.38,WSW,248,5.8,5.8,34,0.00,CLR,,0.45,WeatherDisplay:10.37,2013-05-20 22:48:00,
2013-05-20 17:49:00,71.2,42.2,28.38,NW,315,5.8,5.8,35,0.00,CLR,,0.45,WeatherDisplay:10.37,2013-05-20 22:49:00,
2013-05-20 17:52:00,71.4,42.3,28.38,NNW,338,3.5,3.5,35,0.00,CLR,,0.45,WeatherDisplay:10.37,2013-05-20 22:52:00,
2013-05-20 17:53:00,71.4,42.3,28.38,SW,225,4.9,4.9,35,0.00,CLR,,0.45,WeatherDisplay:10.37,2013-05-20 22:53:00,
2013-05-20 17:54:00,71.6,42.5,28.38,NNW,338,4.6,4.6,35,0.00,CLR,,0.45,WeatherDisplay:10.37,2013-05-20 22:54:00,
2013-05-20 17:58:00,71.6,42.5,28.35,West,270,5.8,5.8,35,0.00,CLR,,0.45,WeatherDisplay:10.37,2013-05-20 22:58:00,
2013-05-20 17:59:00,71.4,40.8,28.35,SW,225,8.1,8.1,33,0.00,CLR,,0.45,WeatherDisplay:10.37,2013-05-20 22:59:00,
2013-05-20 18:03:00,71.1,41.3,28.35,ENE,68,8.1,8.1,34,0.00,CLR,,0.45,WeatherDisplay:10.37,2013-05-20 23:03:00,
2013-05-20 18:04:00,70.9,40.3,28.35,South,180,6.9,6.9,33,0.00,CLR,,0.45,WeatherDisplay:10.37,2013-05-20 23:04:00,
2013-05-20 18:05:00,70.9,40.3,28.35,West,270,7.8,7.8,33,0.00,CLR,,0.45,WeatherDisplay:10.37,2013-05-20 23:05:00,
2013-05-20 18:09:00,70.3,40.6,28.35,SW,225,13.8,13.8,34,0.00,CLR,,0.45,WeatherDisplay:10.37,2013-05-20 23:09:00,
2013-05-20 18:10:00,70.3,40.6,28.38,South,180,8.1,8.1,34,0.00,CLR,,0.45,WeatherDisplay:10.37,2013-05-20 23:10:00,
2013-05-20 18:11:00,70.3,40.6,28.38,WNW,292,5.8,5.8,34,0.00,CLR,,0.45,WeatherDisplay:10.37,2013-05-20 23:11:00,
2013-05-20 18:14:00,70.3,41.4,28.38,South,180,3.5,3.5,35,0.00,CLR,,0.45,WeatherDisplay:10.37,2013-05-20 23:14:00,
2013-05-20 18:15:00,70.3,41.4,28.38,WSW,248,2.3,2.3,35,0.00,CLR,,0.45,WeatherDisplay:10.37,2013-05-20 23:15:00,
2013-05-20 18:16:00,70.3,41.4,28.38,SSE,158,4.6,4.6,35,0.00,CLR,,0.45,WeatherDisplay:10.37,2013-05-20 23:16:00,
2013-05-20 18:19:00,70.5,41.5,28.38,SSW,202,5.8,5.8,35,0.00,CLR,,0.45,WeatherDisplay:10.37,2013-05-20 23:19:00,
2013-05-20 18:20:00,70.5,41.5,28.38,SSW,208,2.0,6.0,35,0.00,CLR,,0.45,WeatherDisplay:10.37,2013-05-20 23:20:00,
2013-05-20 18:21:00,70.5,40.8,28.38,WSW,248,5.8,5.8,34,0.00,CLR,,0.45,WeatherDisplay:10.37,2013-05-20 23:21:00,
2013-05-20 18:24:00,70.2,41.2,28.38,South,180,8.1,8.1,35,0.00,CLR,,0.45,WeatherDisplay:10.37,2013-05-20 23:24:00,
2013-05-20 18:25:00,70.2,41.3,28.38,SW,221,3.0,8.0,35,0.00,CLR,,0.45,WeatherDisplay:10.37,2013-05-20 23:25:00,
2013-05-20 18:27:00,70.2,40.5,28.38,SSW,202,8.5,8.5,34,0.00,CLR,,0.45,WeatherDisplay:10.37,2013-05-20 23:27:00,
2013-05-20 18:28:00,69.8,40.2,28.38,SW,225,8.1,8.1,34,0.00,CLR,,0.45,WeatherDisplay:10.37,2013-05-20 23:28:00,
2013-05-20 18:30:00,69.8,40.9,28.38,NW,315,8.1,8.1,35,0.00,CLR,,0.45,WeatherDisplay:10.37,2013-05-20 23:30:00,
2013-05-20 18:32:00,69.6,40.7,28.38,West,270,8.1,8.1,35,0.00,CLR,,0.45,WeatherDisplay:10.37,2013-05-20 23:32:00,
2013-05-20 18:33:00,69.4,40.6,28.38,West,270,8.1,8.1,35,0.00,CLR,,0.45,WeatherDisplay:10.37,2013-05-20 23:33:00,
2013-05-20 18:35:00,69.6,40.7,28.38,NW,315,6.9,6.9,35,0.00,CLR,,0.45,WeatherDisplay:10.37,2013-05-20 23:35:00,
2013-05-20 18:36:00,69.6,40.7,28.38,NW,315,6.9,6.9,35,0.00,CLR,,0.45,WeatherDisplay:10.37,2013-05-20 23:36:00,
2013-05-20 18:37:00,69.4,40.6,28.38,WSW,248,4.7,4.7,35,0.00,CLR,,0.45,WeatherDisplay:10.37,2013-05-20 23:37:00,
2013-05-20 18:38:00,69.4,40.6,28.38,North,0,4.6,4.6,35,0.00,CLR,,0.45,WeatherDisplay:10.37,2013-05-20 23:38:00,
2013-05-20 18:40:00,69.4,41.3,28.38,WSW,248,8.1,8.1,36,0.00,CLR,,0.45,WeatherDisplay:10.37,2013-05-20 23:40:00,
2013-05-20 18:41:00,69.4,41.3,28.38,SSW,202,8.1,8.1,36,0.00,CLR,,0.45,WeatherDisplay:10.37,2013-05-20 23:41:00,
2013-05-20 18:42:00,69.4,40.6,28.38,SW,225,4.6,4.6,35,0.00,CLR,,0.45,WeatherDisplay:10.37,2013-05-20 23:42:00,
2013-05-20 18:44:00,69.4,41.3,28.38,SW,225,4.6,4.6,36,0.00,CLR,,0.45,WeatherDisplay:10.37,2013-05-20 23:44:00,
2013-05-20 18:45:00,69.3,41.2,28.38,South,180,4.6,4.6,36,0.00,CLR,,0.45,WeatherDisplay:10.37,2013-05-20 23:45:00,
2013-05-20 18:46:00,69.3,41.2,28.38,SW,225,5.8,5.8,36,0.00,CLR,,0.45,WeatherDisplay:10.37,2013-05-20 23:46:00,
2013-05-20 18:47:00,69.1,41.0,28.38,South,180,5.8,5.8,36,0.00,CLR,,0.45,WeatherDisplay:10.37,2013-05-20 23:47:00,
2013-05-20 18:49:00,69.4,42.0,28.38,SW,225,2.3,2.3,37,0.00,CLR,,0.45,WeatherDisplay:10.37,2013-05-20 23:49:00,
2013-05-20 18:51:00,69.3,41.2,28.38,SW,225,4.6,4.6,36,0.00,CLR,,0.45,WeatherDisplay:10.37,2013-05-20 23:51:00,
2013-05-20 18:52:00,69.1,41.0,28.38,WSW,248,6.9,6.9,36,0.00,CLR,,0.45,WeatherDisplay:10.37,2013-05-20 23:52:00,
2013-05-20 18:53:00,69.1,41.7,28.38,West,270,3.5,3.5,37,0.00,CLR,,0.45,WeatherDisplay:10.37,2013-05-20 23:53:00,
2013-05-20 18:55:00,69.3,41.9,28.35,SW,225,3.5,3.5,37,0.00,CLR,,0.45,WeatherDisplay:10.37,2013-05-20 23:55:00,
2013-05-20 18:56:00,69.3,41.9,28.35,South,180,4.9,4.9,37,0.00,CLR,,0.45,WeatherDisplay:10.37,2013-05-20 23:56:00,
2013-05-20 18:57:00,69.1,41.7,28.35,WNW,292,4.6,4.6,37,0.00,CLR,,0.45,WeatherDisplay:10.37,2013-05-20 23:57:00,
2013-05-20 18:58:00,69.1,41.7,28.35,WNW,292,4.6,4.6,37,0.00,CLR,,0.45,WeatherDisplay:10.37,2013-05-20 23:58:00,
2013-05-20 19:01:00,68.9,40.8,28.35,SSE,158,4.9,4.9,36,0.00,CLR,,0.45,WeatherDisplay:10.37,2013-05-21 00:01:00,
2013-05-20 19:02:00,68.9,41.5,28.35,NNW,338,4.6,4.6,37,0.00,CLR,,0.45,WeatherDisplay:10.37,2013-05-21 00:02:00,
2013-05-20 19:03:00,68.7,41.4,28.35,NW,315,5.8,5.8,37,0.00,CLR,,0.45,WeatherDisplay:10.37,2013-05-21 00:03:00,
2013-05-20 19:06:00,68.5,41.2,28.35,West,270,4.6,4.6,37,0.00,CLR,,0.45,WeatherDisplay:10.37,2013-05-21 00:06:00,
2013-05-20 19:07:00,68.7,41.4,28.35,SW,225,4.6,4.6,37,0.00,CLR,,0.45,WeatherDisplay:10.37,2013-05-21 00:07:00,
2013-05-20 19:08:00,68.7,41.4,28.35,West,270,8.1,8.1,37,0.00,CLR,,0.45,WeatherDisplay:10.37,2013-05-21 00:08:00,
2013-05-20 19:09:00,68.7,41.4,28.35,SW,225,8.1,8.1,37,0.00,CLR,,0.45,WeatherDisplay:10.37,2013-05-21 00:09:00,
2013-05-20 19:10:00,68.5,41.2,28.38,North,0,3.8,3.8,37,0.00,CLR,,0.45,WeatherDisplay:10.37,2013-05-21 00:10:00,
2013-05-20 19:11:00,68.4,41.8,28.38,SW,225,3.5,3.5,38,0.00,CLR,,0.45,WeatherDisplay:10.37,2013-05-21 00:11:00,
2013-05-20 19:12:00,68.4,41.8,28.38,West,270,2.3,2.6,38,0.00,CLR,,0.45,WeatherDisplay:10.37,2013-05-21 00:12:00,
2013-05-20 19:14:00,68.4,41.8,28.38,SSW,202,2.3,2.3,38,0.00,CLR,,0.45,WeatherDisplay:10.37,2013-05-21 00:14:00,
2013-05-20 19:15:00,68.4,41.8,28.38,SSW,202,2.3,2.3,38,0.00,CLR,,0.45,WeatherDisplay:10.37,2013-05-21 00:15:00,
2013-05-20 19:17:00,68.4,42.4,28.38,WSW,248,0.0,0.0,39,0.00,CLR,,0.45,WeatherDisplay:10.37,2013-05-21 00:17:00,
2013-05-20 19:19:00,68.4,42.4,28.38,SSW,202,2.3,0.0,39,0.00,CLR,,0.45,WeatherDisplay:10.37,2013-05-21 00:19:00,
2013-05-20 19:21:00,68.4,43.1,28.38,WSW,248,2.3,0.0,40,0.00,CLR,,0.45,WeatherDisplay:10.37,2013-05-21 00:21:00,
2013-05-20 19:22:00,68.4,43.1,28.38,SSE,158,1.2,0.0,40,0.00,CLR,,0.45,WeatherDisplay:10.37,2013-05-21 00:22:00,
2013-05-20 19:23:00,68.2,42.9,28.38,South,180,1.2,0.0,40,0.00,CLR,,0.45,WeatherDisplay:10.37,2013-05-21 00:23:00,
2013-05-20 19:25:00,68.0,42.8,28.38,SW,234,0.0,2.0,40,0.00,CLR,,0.45,WeatherDisplay:10.37,2013-05-21 00:25:00,
2013-05-20 19:27:00,67.6,42.4,28.38,WSW,248,1.2,0.0,40,0.00,CLR,,0.45,WeatherDisplay:10.37,2013-05-21 00:27:00,
2013-05-20 19:28:00,67.6,42.4,28.38,WSW,248,1.2,0.0,40,0.00,CLR,,0.45,WeatherDisplay:10.37,2013-05-21 00:28:00,
2013-05-20 19:30:00,67.5,42.3,28.38,WSW,242,1.0,2.0,40,0.00,CLR,,0.45,WeatherDisplay:10.37,2013-05-21 00:30:00,
2013-05-20 19:32:00,67.1,42.0,28.38,WSW,248,1.2,0.0,40,0.00,CLR,,0.45,WeatherDisplay:10.37,2013-05-21 00:32:00,
2013-05-20 19:33:00,66.9,42.4,28.38,WSW,248,0.0,0.0,41,0.00,CLR,,0.45,WeatherDisplay:10.37,2013-05-21 00:33:00,
2013-05-20 19:34:00,66.9,42.4,28.38,SSW,202,1.2,0.0,41,0.00,CLR,,0.45,WeatherDisplay:10.37,2013-05-21 00:34:00,
2013-05-20 19:35:00,66.9,42.4,28.38,WSW,248,0.0,2.0,41,0.00,CLR,,0.45,WeatherDisplay:10.37,2013-05-21 00:35:00,
2013-05-20 19:38:00,66.6,42.1,28.38,SSW,202,3.3,3.3,41,0.00,CLR,,0.45,WeatherDisplay:10.37,2013-05-21 00:38:00,
2013-05-20 19:39:00,66.4,42.6,28.38,SW,225,3.5,3.5,42,0.00,CLR,,0.45,WeatherDisplay:10.37,2013-05-21 00:39:00,
2013-05-20 19:40:00,66.2,42.4,28.38,SW,225,2.3,2.3,42,0.00,CLR,,0.45,WeatherDisplay:10.37,2013-05-21 00:40:00,
2013-05-20 19:43:00,65.8,42.1,28.38,SW,225,2.3,2.3,42,0.00,CLR,,0.45,WeatherDisplay:10.37,2013-05-21 00:43:00,
2013-05-20 19:44:00,65.7,41.9,28.38,SW,225,1.2,1.2,42,0.00,CLR,,0.45,WeatherDisplay:10.37,2013-05-21 00:44:00,
2013-05-20 19:46:00,65.5,42.4,28.38,WSW,248,1.2,0.0,43,0.00,CLR,,0.45,WeatherDisplay:10.37,2013-05-21 00:46:00,
2013-05-20 19:48:00,65.3,42.2,28.38,WSW,248,0.0,0.0,43,0.00,CLR,,0.45,WeatherDisplay:10.37,2013-05-21 00:48:00,
2013-05-20 19:49:00,65.1,42.1,28.38,SSW,202,0.9,0.0,43,0.00,CLR,,0.45,WeatherDisplay:10.37,2013-05-21 00:49:00,
2013-05-20 19:51:00,64.9,41.9,28.38,SW,225,1.2,0.0,43,0.00,CLR,,0.45,WeatherDisplay:10.37,2013-05-21 00:51:00,
2013-05-20 19:53:00,64.8,42.3,28.38,SSW,202,0.0,0.0,44,0.00,CLR,,0.45,WeatherDisplay:10.37,2013-05-21 00:53:00,
2013-05-20 19:54:00,64.6,42.2,28.38,SSW,202,2.3,0.0,44,0.00,CLR,,0.45,WeatherDisplay:10.37,2013-05-21 00:54:00,
2013-05-20 19:55:00,64.6,42.2,28.35,WSW,248,0.0,0.0,44,0.00,CLR,,0.45,WeatherDisplay:10.37,2013-05-21 00:55:00,
2013-05-20 19:56:00,64.4,42.0,28.35,WSW,248,0.0,0.0,44,0.00,CLR,,0.45,WeatherDisplay:10.37,2013-05-21 00:56:00,
2013-05-20 19:57:00,64.4,42.0,28.35,WSW,248,0.0,0.0,44,0.00,CLR,,0.45,WeatherDisplay:10.37,2013-05-21 00:57:00,
2013-05-20 19:59:00,64.2,42.4,28.35,SSW,202,0.0,0.0,45,0.00,CLR,,0.45,WeatherDisplay:10.37,2013-05-21 00:59:00,
2013-05-20 20:00:00,63.9,42.1,28.35,SSW,202,0.0,0.0,45,0.00,CLR,,0.45,WeatherDisplay:10.37,2013-05-21 01:00:00,
2013-05-20 20:01:00,63.9,42.1,28.35,SSW,202,0.0,0.0,45,0.00,CLR,,0.45,WeatherDisplay:10.37,2013-05-21 01:01:00,
2013-05-20 20:02:00,63.7,43.1,28.35,SSE,158,3.8,3.8,47,0.00,CLR,,0.45,WeatherDisplay:10.37,2013-05-21 01:02:00,
2013-05-20 20:04:00,63.3,42.7,28.35,SW,225,4.6,4.6,47,0.00,CLR,,0.45,WeatherDisplay:10.37,2013-05-21 01:04:00,
2013-05-20 20:05:00,63.1,42.6,28.35,SSW,202,0.0,0.0,47,0.00,CLR,,0.45,WeatherDisplay:10.37,2013-05-21 01:05:00,
2013-05-20 20:06:00,63.1,42.6,28.35,South,180,0.0,0.0,47,0.00,CLR,,0.45,WeatherDisplay:10.37,2013-05-21 01:06:00,
2013-05-20 20:08:00,63.0,43.0,28.35,SW,225,0.0,0.0,48,0.00,CLR,,0.45,WeatherDisplay:10.37,2013-05-21 01:08:00,
2013-05-20 20:09:00,63.0,43.0,28.35,SW,225,0.0,0.0,48,0.00,CLR,,0.45,WeatherDisplay:10.37,2013-05-21 01:09:00,
2013-05-20 20:10:00,62.8,42.8,28.38,SW,225,0.0,0.0,48,0.00,CLR,,0.45,WeatherDisplay:10.37,2013-05-21 01:10:00,
2013-05-20 20:11:00,62.8,42.8,28.38,SW,225,0.0,0.0,48,0.00,CLR,,0.45,WeatherDisplay:10.37,2013-05-21 01:11:00,
2013-05-20 20:14:00,62.4,42.5,28.38,SW,225,0.0,0.0,48,0.00,CLR,,0.45,WeatherDisplay:10.37,2013-05-21 01:14:00,
2013-05-20 20:15:00,62.2,42.3,28.38,WSW,248,0.0,0.0,48,0.00,CLR,,0.45,WeatherDisplay:10.37,2013-05-21 01:15:00,
2013-05-20 20:16:00,62.2,42.3,28.38,WSW,248,0.0,0.0,48,0.00,CLR,,0.45,WeatherDisplay:10.37,2013-05-21 01:16:00,
2013-05-20 20:17:00,62.1,42.7,28.38,WSW,248,0.0,0.0,49,0.00,CLR,,0.45,WeatherDisplay:10.37,2013-05-21 01:17:00,
2013-05-20 20:19:00,61.7,42.9,28.38,SW,225,2.3,2.3,50,0.00,CLR,,0.45,WeatherDisplay:10.37,2013-05-21 01:19:00,
2013-05-20 20:21:00,61.7,42.9,28.38,SW,225,0.0,0.0,50,0.00,CLR,,0.45,WeatherDisplay:10.37,2013-05-21 01:21:00,
2013-05-20 20:22:00,61.5,42.7,28.38,SW,225,0.0,0.0,50,0.00,CLR,,0.45,WeatherDisplay:10.37,2013-05-21 01:22:00,
2013-05-20 20:24:00,61.5,43.2,28.38,South,180,2.4,2.4,51,0.00,CLR,,0.45,WeatherDisplay:10.37,2013-05-21 01:24:00,
2013-05-20 20:25:00,61.3,43.6,28.35,South,180,2.3,2.3,52,0.00,CLR,,0.45,WeatherDisplay:10.37,2013-05-21 01:25:00,
2013-05-20 20:26:00,61.3,43.0,28.35,South,180,2.3,0.0,51,0.00,CLR,,0.45,WeatherDisplay:10.37,2013-05-21 01:26:00,
2013-05-20 20:27:00,61.2,43.4,28.35,South,180,0.0,0.0,52,0.00,CLR,,0.45,WeatherDisplay:10.37,2013-05-21 01:27:00,
2013-05-20 20:28:00,61.2,42.9,28.35,South,180,0.0,0.0,51,0.00,CLR,,0.45,WeatherDisplay:10.37,2013-05-21 01:28:00,
2013-05-20 20:29:00,61.2,43.4,28.35,West,270,0.0,0.0,52,0.00,CLR,,0.45,WeatherDisplay:10.37,2013-05-21 01:29:00,
2013-05-20 20:30:00,61.2,43.4,28.35,WNW,292,0.0,0.0,52,0.00,CLR,,0.45,WeatherDisplay:10.37,2013-05-21 01:30:00,
2013-05-20 20:31:00,60.8,43.1,28.35,NW,315,0.0,0.0,52,0.00,CLR,,0.45,WeatherDisplay:10.37,2013-05-21 01:31:00,
2013-05-20 20:32:00,60.6,43.4,28.35,NW,315,0.0,0.0,53,0.00,CLR,,0.45,WeatherDisplay:10.37,2013-05-21 01:32:00,
2013-05-20 20:33:00,60.6,43.4,28.35,NW,315,0.0,0.0,53,0.00,CLR,,0.45,WeatherDisplay:10.37,2013-05-21 01:33:00,
2013-05-20 20:35:00,60.3,43.5,28.35,NW,315,0.0,0.0,54,0.00,CLR,,0.45,WeatherDisplay:10.37,2013-05-21 01:35:00,
2013-05-20 20:37:00,59.9,43.7,28.35,NW,315,0.0,0.0,55,0.00,CLR,,0.45,WeatherDisplay:10.37,2013-05-21 01:37:00,
2013-05-20 20:38:00,59.9,43.7,28.35,NW,315,0.0,0.0,55,0.00,CLR,,0.45,WeatherDisplay:10.37,2013-05-21 01:38:00,
2013-05-20 20:39:00,59.7,44.0,28.35,NW,315,0.0,0.0,56,0.00,CLR,,0.45,WeatherDisplay:10.37,2013-05-21 01:39:00,
2013-05-20 20:40:00,59.5,43.8,28.41,NW,315,0.0,0.0,56,0.00,CLR,,0.45,WeatherDisplay:10.37,2013-05-21 01:40:00,
2013-05-20 20:41:00,59.5,43.8,28.41,NW,315,0.0,0.0,56,0.00,CLR,,0.45,WeatherDisplay:10.37,2013-05-21 01:41:00,
2013-05-20 20:42:00,59.2,43.5,28.41,NW,315,0.0,0.0,56,0.00,CLR,,0.45,WeatherDisplay:10.37,2013-05-21 01:42:00,
2013-05-20 20:43:00,59.2,43.9,28.41,NW,315,0.0,0.0,57,0.00,CLR,,0.45,WeatherDisplay:10.37,2013-05-21 01:43:00,
2013-05-20 20:44:00,59.0,44.2,28.41,NW,315,0.0,0.0,58,0.00,CLR,,0.45,WeatherDisplay:10.37,2013-05-21 01:44:00,
2013-05-20 20:45:00,58.8,44.5,28.41,NW,315,2.0,2.0,59,0.00,CLR,,0.45,WeatherDisplay:10.37,2013-05-21 01:45:00,
2013-05-20 20:46:00,58.8,44.5,28.41,NNW,338,2.3,2.3,59,0.00,CLR,,0.45,WeatherDisplay:10.37,2013-05-21 01:46:00,
2013-05-20 20:47:00,58.6,44.3,28.41,NW,315,1.2,1.2,59,0.00,CLR,,0.45,WeatherDisplay:10.37,2013-05-21 01:47:00,
2013-05-20 20:48:00,58.6,44.8,28.41,NNW,338,1.2,0.0,60,0.00,CLR,,0.45,WeatherDisplay:10.37,2013-05-21 01:48:00,
2013-05-20 20:50:00,58.5,44.6,28.41,NNW,338,0.0,0.0,60,0.00,CLR,,0.45,WeatherDisplay:10.37,2013-05-21 01:50:00,
2013-05-20 20:52:00,58.3,44.4,28.41,NNW,338,0.0,0.0,60,0.00,CLR,,0.45,WeatherDisplay:10.37,2013-05-21 01:52:00,
2013-05-20 20:53:00,58.3,44.4,28.41,NNW,338,0.0,0.0,60,0.00,CLR,,0.45,WeatherDisplay:10.37,2013-05-21 01:53:00,
2013-05-20 20:54:00,58.3,44.4,28.41,NW,315,1.6,1.6,60,0.00,CLR,,0.45,WeatherDisplay:10.37,2013-05-21 01:54:00,
2013-05-20 20:55:00,58.3,44.4,28.38,WNW,292,2.4,2.4,60,0.00,CLR,,0.45,WeatherDisplay:10.37,2013-05-21 01:55:00,
2013-05-20 20:56:00,58.1,45.6,28.38,NW,315,2.3,2.3,63,0.00,CLR,,0.45,WeatherDisplay:10.37,2013-05-21 01:56:00,
2013-05-20 20:57:00,58.1,46.0,28.38,West,270,2.3,2.3,64,0.00,CLR,,0.45,WeatherDisplay:10.37,2013-05-21 01:57:00,
2013-05-20 20:58:00,58.1,46.0,28.38,NW,315,3.5,3.5,64,0.00,CLR,,0.45,WeatherDisplay:10.37,2013-05-21 01:58:00,
2013-05-20 20:59:00,57.7,46.0,28.38,NW,315,2.3,2.4,65,0.00,CLR,,0.45,WeatherDisplay:10.37,2013-05-21 01:59:00,
2013-05-20 21:00:00,57.7,46.0,28.38,NW,315,2.3,2.3,65,0.00,CLR,,0.45,WeatherDisplay:10.37,2013-05-21 02:00:00,
2013-05-20 21:01:00,57.7,46.0,28.38,West,270,2.3,2.3,65,0.00,CLR,,0.45,WeatherDisplay:10.37,2013-05-21 02:01:00,
2013-05-20 21:02:00,57.6,46.3,28.38,WNW,292,2.3,2.3,66,0.00,CLR,,0.45,WeatherDisplay:10.37,2013-05-21 02:02:00,
2013-05-20 21:03:00,57.6,46.3,28.38,WNW,292,2.3,2.3,66,0.00,CLR,,0.45,WeatherDisplay:10.37,2013-05-21 02:03:00,
2013-05-20 21:05:00,57.2,45.9,28.38,West,270,2.3,2.3,66,0.00,CLR,,0.45,WeatherDisplay:10.37,2013-05-21 02:05:00,
2013-05-20 21:07:00,57.2,45.9,28.38,WNW,292,0.0,0.0,66,0.00,CLR,,0.45,WeatherDisplay:10.37,2013-05-21 02:07:00,
2013-05-20 21:08:00,57.0,46.2,28.38,NW,315,0.0,0.0,67,0.00,CLR,,0.45,WeatherDisplay:10.37,2013-05-21 02:08:00,
2013-05-20 21:10:00,56.8,46.8,28.38,NE,45,0.0,0.0,69,0.00,CLR,,0.45,WeatherDisplay:10.37,2013-05-21 02:10:00,
2013-05-20 21:11:00,56.8,46.0,28.38,NE,45,0.0,0.0,67,0.00,CLR,,0.45,WeatherDisplay:10.37,2013-05-21 02:11:00,
2013-05-20 21:12:00,56.8,46.0,28.38,NE,45,0.0,0.0,67,0.00,CLR,,0.45,WeatherDisplay:10.37,2013-05-21 02:12:00,
2013-05-20 21:13:00,56.7,46.2,28.38,NE,45,0.0,0.0,68,0.00,CLR,,0.45,WeatherDisplay:10.37,2013-05-21 02:13:00,
2013-05-20 21:14:00,56.7,46.2,28.38,NE,45,0.0,0.0,68,0.00,CLR,,0.45,WeatherDisplay:10.37,2013-05-21 02:14:00,
2013-05-20 21:15:00,56.7,46.6,28.38,NE,45,0.0,0.0,69,0.00,CLR,,0.45,WeatherDisplay:10.37,2013-05-21 02:15:00,
2013-05-20 21:16:00,56.5,46.8,28.38,NE,45,0.0,0.0,70,0.00,CLR,,0.45,WeatherDisplay:10.37,2013-05-21 02:16:00,
2013-05-20 21:17:00,56.5,46.8,28.38,NE,45,0.0,0.0,70,0.00,CLR,,0.45,WeatherDisplay:10.37,2013-05-21 02:17:00,
2013-05-20 21:19:00,56.5,46.0,28.38,NW,315,2.0,2.0,68,0.00,CLR,,0.45,WeatherDisplay:10.37,2013-05-21 02:19:00,
2013-05-20 21:21:00,56.5,46.0,28.38,NW,315,2.3,2.3,68,0.00,CLR,,0.45,WeatherDisplay:10.37,2013-05-21 02:21:00,
2013-05-20 21:23:00,56.3,46.3,28.38,NW,315,1.2,0.0,69,0.00,CLR,,0.45,WeatherDisplay:10.37,2013-05-21 02:23:00,
2013-05-20 21:25:00,56.3,46.3,28.38,WNW,292,0.9,0.0,69,0.00,CLR,,0.45,WeatherDisplay:10.37,2013-05-21 02:25:00,
2013-05-20 21:27:00,56.1,46.5,28.38,WNW,292,1.4,1.4,70,0.00,CLR,,0.45,WeatherDisplay:10.37,2013-05-21 02:27:00,
2013-05-20 21:28:00,56.1,46.5,28.38,WNW,292,2.3,2.3,70,0.00,CLR,,0.45,WeatherDisplay:10.37,2013-05-21 02:28:00,
2013-05-20 21:30:00,55.9,46.3,28.38,NW,315,0.0,0.0,70,0.00,CLR,,0.45,WeatherDisplay:10.37,2013-05-21 02:30:00,
2013-05-20 21:31:00,55.9,46.7,28.38,NW,315,0.0,0.0,71,0.00,CLR,,0.45,WeatherDisplay:10.37,2013-05-21 02:31:00,
2013-05-20 21:32:00,55.9,46.7,28.38,NW,315,0.0,0.0,71,0.00,CLR,,0.45,WeatherDisplay:10.37,2013-05-21 02:32:00,
2013-05-20 21:33:00,55.9,46.7,28.38,NW,315,0.0,0.0,71,0.00,CLR,,0.45,WeatherDisplay:10.37,2013-05-21 02:33:00,
2013-05-20 21:35:00,55.8,46.5,28.38,NW,315,0.0,0.0,71,0.00,CLR,,0.45,WeatherDisplay:10.37,2013-05-21 02:35:00,
2013-05-20 21:37:00,55.8,46.5,28.38,NW,315,0.0,0.0,71,0.00,CLR,,0.45,WeatherDisplay:10.37,2013-05-21 02:37:00,
2013-05-20 21:38:00,55.8,46.5,28.38,NW,315,0.0,0.0,71,0.00,CLR,,0.45,WeatherDisplay:10.37,2013-05-21 02:38:00,
2013-05-20 21:40:00,55.6,46.3,28.38,NW,315,0.0,0.0,71,0.00,CLR,,0.45,WeatherDisplay:10.37,2013-05-21 02:40:00,
2013-05-20 21:42:00,55.6,46.3,28.38,NW,315,0.0,0.0,71,0.00,CLR,,0.45,WeatherDisplay:10.37,2013-05-21 02:42:00,
2013-05-20 21:43:00,55.6,46.3,28.38,NW,315,0.0,0.0,71,0.00,CLR,,0.45,WeatherDisplay:10.37,2013-05-21 02:43:00,
2013-05-20 21:45:00,55.4,46.2,28.38,NW,315,0.0,0.0,71,0.00,CLR,,0.45,WeatherDisplay:10.37,2013-05-21 02:45:00,
2013-05-20 21:47:00,55.4,46.5,28.38,SSE,158,0.0,0.0,72,0.00,CLR,,0.45,WeatherDisplay:10.37,2013-05-21 02:47:00,
2013-05-20 21:48:00,55.4,46.5,28.38,SSE,158,0.0,0.0,72,0.00,CLR,,0.45,WeatherDisplay:10.37,2013-05-21 02:48:00,
2013-05-20 21:50:00,55.2,46.3,28.38,SSE,158,0.0,0.0,72,0.00,CLR,,0.45,WeatherDisplay:10.37,2013-05-21 02:50:00,
2013-05-20 21:53:00,55.0,46.2,28.38,SSE,158,0.0,0.0,72,0.00,CLR,,0.45,WeatherDisplay:10.37,2013-05-21 02:53:00,
2013-05-20 21:54:00,54.9,46.0,28.38,SSE,158,0.0,0.0,72,0.00,CLR,,0.45,WeatherDisplay:10.37,2013-05-21 02:54:00,
2013-05-20 21:56:00,54.9,46.0,28.38,West,270,0.0,0.0,72,0.00,CLR,,0.45,WeatherDisplay:10.37,2013-05-21 02:56:00,
2013-05-20 21:58:00,54.7,45.8,28.38,West,270,0.0,0.0,72,0.00,CLR,,0.45,WeatherDisplay:10.37,2013-05-21 02:58:00,
2013-05-20 21:59:00,54.7,45.8,28.38,West,270,0.0,0.0,72,0.00,CLR,,0.45,WeatherDisplay:10.37,2013-05-21 02:59:00,
2013-05-20 22:01:00,54.5,45.7,28.38,WNW,292,0.0,0.0,72,0.00,CLR,,0.45,WeatherDisplay:10.37,2013-05-21 03:01:00,
2013-05-20 22:03:00,54.5,46.0,28.38,WNW,292,0.0,0.0,73,0.00,CLR,,0.45,WeatherDisplay:10.37,2013-05-21 03:03:00,
2013-05-20 22:04:00,54.3,45.8,28.38,WNW,292,0.0,0.0,73,0.00,CLR,,0.45,WeatherDisplay:10.37,2013-05-21 03:04:00,
2013-05-20 22:07:00,54.3,46.6,28.38,WNW,292,0.0,0.0,75,0.00,CLR,,0.45,WeatherDisplay:10.37,2013-05-21 03:07:00,
2013-05-20 22:08:00,54.1,46.4,28.38,WNW,292,0.0,0.0,75,0.00,CLR,,0.45,WeatherDisplay:10.37,2013-05-21 03:08:00,
2013-05-20 22:09:00,54.1,46.4,28.38,WNW,292,0.0,0.0,75,0.00,CLR,,0.45,WeatherDisplay:10.37,2013-05-21 03:09:00,
2013-05-20 22:10:00,54.1,46.0,28.35,WNW,292,0.0,0.0,74,0.00,CLR,,0.45,WeatherDisplay:10.37,2013-05-21 03:10:00,
2013-05-20 22:12:00,54.1,46.4,28.35,WNW,292,0.0,0.0,75,0.00,CLR,,0.45,WeatherDisplay:10.37,2013-05-21 03:12:00,
2013-05-20 22:13:00,54.0,45.9,28.35,WNW,292,0.0,0.0,74,0.00,CLR,,0.45,WeatherDisplay:10.37,2013-05-21 03:13:00,
2013-05-20 22:14:00,54.0,46.2,28.35,SE,135,0.0,0.0,75,0.00,CLR,,0.45,WeatherDisplay:10.37,2013-05-21 03:14:00,
2013-05-20 22:15:00,54.0,46.2,28.35,SE,135,0.0,0.0,75,0.00,CLR,,0.45,WeatherDisplay:10.37,2013-05-21 03:15:00,
2013-05-20 22:17:00,54.0,46.9,28.35,SE,135,0.0,0.0,77,0.00,CLR,,0.45,WeatherDisplay:10.37,2013-05-21 03:17:00,
2013-05-20 22:18:00,54.0,46.9,28.35,SE,135,0.0,0.0,77,0.00,CLR,,0.45,WeatherDisplay:10.37,2013-05-21 03:18:00,
2013-05-20 22:20:00,54.0,46.9,28.35,SE,135,0.0,0.0,77,0.00,CLR,,0.45,WeatherDisplay:10.37,2013-05-21 03:20:00,
2013-05-20 22:23:00,54.0,47.3,28.35,SE,135,0.0,0.0,78,0.00,CLR,,0.45,WeatherDisplay:10.37,2013-05-21 03:23:00,
2013-05-20 22:24:00,54.0,46.6,28.35,SE,135,0.0,0.0,76,0.00,CLR,,0.45,WeatherDisplay:10.37,2013-05-21 03:24:00,
2013-05-20 22:25:00,54.0,46.9,28.38,SE,135,0.0,0.0,77,0.00,CLR,,0.45,WeatherDisplay:10.37,2013-05-21 03:25:00,
2013-05-20 22:26:00,54.0,46.9,28.38,SE,135,0.0,0.0,77,0.00,CLR,,0.45,WeatherDisplay:10.37,2013-05-21 03:26:00,
2013-05-20 22:28:00,53.8,47.1,28.38,SE,135,0.0,0.0,78,0.00,CLR,,0.45,WeatherDisplay:10.37,2013-05-21 03:28:00,
2013-05-20 22:29:00,53.6,46.9,28.38,NNE,22,0.0,0.0,78,0.00,CLR,,0.45,WeatherDisplay:10.37,2013-05-21 03:29:00,
2013-05-20 22:30:00,53.6,46.9,28.38,North,0,0.0,0.0,78,0.00,CLR,,0.45,WeatherDisplay:10.37,2013-05-21 03:30:00,
2013-05-20 22:31:00,53.6,46.9,28.38,NNW,338,0.0,0.0,78,0.00,CLR,,0.45,WeatherDisplay:10.37,2013-05-21 03:31:00,
2013-05-20 22:32:00,53.6,46.9,28.38,NNW,338,0.0,0.0,78,0.00,CLR,,0.45,WeatherDisplay:10.37,2013-05-21 03:32:00,
2013-05-20 22:34:00,53.6,46.9,28.38,NNW,338,0.0,0.0,78,0.00,CLR,,0.45,WeatherDisplay:10.37,2013-05-21 03:34:00,
2013-05-20 22:35:00,53.6,46.9,28.38,NNW,338,0.0,0.0,78,0.00,CLR,,0.45,WeatherDisplay:10.37,2013-05-21 03:35:00,
2013-05-20 22:36:00,53.6,46.9,28.38,WNW,292,0.0,0.0,78,0.00,CLR,,0.45,WeatherDisplay:10.37,2013-05-21 03:36:00,
2013-05-20 22:37:00,53.8,47.8,28.38,West,270,0.0,0.0,80,0.00,CLR,,0.45,WeatherDisplay:10.37,2013-05-21 03:37:00,
2013-05-20 22:39:00,53.6,47.2,28.38,SW,225,1.4,1.4,79,0.00,CLR,,0.45,WeatherDisplay:10.37,2013-05-21 03:39:00,
2013-05-20 22:40:00,53.6,47.6,28.38,West,270,1.2,1.2,80,0.00,CLR,,0.45,WeatherDisplay:10.37,2013-05-21 03:40:00,
2013-05-20 22:41:00,53.6,47.6,28.38,West,270,1.2,1.2,80,0.00,CLR,,0.45,WeatherDisplay:10.37,2013-05-21 03:41:00,
2013-05-20 22:43:00,53.8,48.4,28.38,SW,225,1.2,0.0,82,0.00,CLR,,0.45,WeatherDisplay:10.37,2013-05-21 03:43:00,
2013-05-20 22:44:00,53.6,48.2,28.38,SSW,202,1.2,0.0,82,0.00,CLR,,0.45,WeatherDisplay:10.37,2013-05-21 03:44:00,
2013-05-20 22:46:00,53.6,48.6,28.38,SSW,202,1.2,0.0,83,0.01,RA,,0.47,WeatherDisplay:10.37,2013-05-21 03:46:00,
2013-05-20 22:47:00,53.6,48.6,28.38,SSE,158,1.2,0.0,83,0.01,RA,,0.47,WeatherDisplay:10.37,2013-05-21 03:47:00,
2013-05-20 22:48:00,53.8,49.1,28.38,SSW,202,1.2,1.2,84,0.01,RA,,0.47,WeatherDisplay:10.37,2013-05-21 03:48:00,
2013-05-20 22:50:00,53.6,48.9,28.38,SW,219,0.0,1.0,84,0.00,RA,,0.48,WeatherDisplay:10.37,2013-05-21 03:50:00,
2013-05-20 22:51:00,53.6,48.9,28.38,WSW,248,0.0,0.0,84,0.02,RA,,0.48,WeatherDisplay:10.37,2013-05-21 03:51:00,
2013-05-20 22:52:00,53.6,48.9,28.38,NNW,338,1.6,0.0,84,0.03,RA,,0.49,WeatherDisplay:10.37,2013-05-21 03:52:00,
2013-05-20 22:54:00,53.6,49.2,28.38,North,0,2.4,2.4,85,0.03,RA,,0.49,WeatherDisplay:10.37,2013-05-21 03:54:00,
2013-05-20 22:55:00,53.4,49.3,28.38,North,0,2.3,2.3,86,0.03,RA,,0.49,WeatherDisplay:10.37,2013-05-21 03:55:00,
2013-05-20 22:56:00,53.4,49.3,28.38,North,0,1.2,0.0,86,0.03,RA,,0.49,WeatherDisplay:10.37,2013-05-21 03:56:00,
2013-05-20 22:57:00,53.4,49.0,28.38,WNW,292,2.0,2.0,85,0.03,RA,,0.49,WeatherDisplay:10.37,2013-05-21 03:57:00,
2013-05-20 22:59:00,53.4,49.0,28.38,NW,315,2.3,2.3,85,0.03,RA,,0.49,WeatherDisplay:10.37,2013-05-21 03:59:00,
2013-05-20 23:00:00,53.4,49.0,28.38,WNW,292,2.6,2.6,85,0.03,RA,,0.49,WeatherDisplay:10.37,2013-05-21 04:00:00,
2013-05-20 23:01:00,53.6,49.5,28.38,WNW,292,2.3,2.3,86,0.03,RA,,0.49,WeatherDisplay:10.37,2013-05-21 04:01:00,
2013-05-20 23:06:00,53.6,50.4,28.38,NW,315,1.2,0.0,89,0.03,CLR,,0.49,WeatherDisplay:10.37,2013-05-21 04:06:00,
2013-05-20 23:07:00,53.6,50.4,28.38,West,270,0.0,0.0,89,0.03,CLR,,0.49,WeatherDisplay:10.37,2013-05-21 04:07:00,
2013-05-20 23:11:00,53.6,50.4,28.38,ENE,68,0.0,0.0,89,0.03,CLR,,0.49,WeatherDisplay:10.37,2013-05-21 04:11:00,
2013-05-20 23:12:00,53.6,50.4,28.38,ENE,68,0.0,0.0,89,0.03,CLR,,0.49,WeatherDisplay:10.37,2013-05-21 04:12:00,
2013-05-20 23:16:00,53.6,50.1,28.38,NNE,22,0.0,0.0,88,0.06,RA,,0.51,WeatherDisplay:10.37,2013-05-21 04:16:00,
2013-05-20 23:17:00,53.6,50.1,28.38,NNE,22,0.0,0.0,88,0.06,RA,,0.51,WeatherDisplay:10.37,2013-05-21 04:17:00,
2013-05-20 23:18:00,53.6,50.4,28.38,NW,315,1.4,0.0,89,0.06,RA,,0.51,WeatherDisplay:10.37,2013-05-21 04:18:00,
2013-05-20 23:22:00,53.6,50.1,28.38,West,270,0.0,0.0,88,0.06,RA,,0.51,WeatherDisplay:10.37,2013-05-21 04:22:00,
2013-05-20 23:23:00,53.6,50.1,28.38,SW,225,0.0,0.0,88,0.06,RA,,0.51,WeatherDisplay:10.37,2013-05-21 04:23:00,
2013-05-20 23:27:00,53.6,50.7,28.35,NE,45,0.0,0.0,90,0.06,,,0.51,WeatherDisplay:10.37,2013-05-21 04:27:00,
2013-05-20 23:28:00,53.6,50.7,28.35,NE,45,0.0,0.0,90,0.06,CLR,,0.51,WeatherDisplay:10.37,2013-05-21 04:28:00,
2013-05-20 23:29:00,53.6,50.4,28.35,ENE,68,0.0,0.0,89,0.06,CLR,,0.51,WeatherDisplay:10.37,2013-05-21 04:29:00,
2013-05-20 23:32:00,53.6,50.4,28.35,SE,135,0.0,0.0,89,0.06,CLR,,0.51,WeatherDisplay:10.37,2013-05-21 04:32:00,
2013-05-20 23:33:00,53.6,50.4,28.35,SE,135,0.0,0.0,89,0.06,CLR,,0.51,WeatherDisplay:10.37,2013-05-21 04:33:00,
2013-05-20 23:34:00,53.6,50.4,28.35,SE,135,0.0,0.0,89,0.06,CLR,,0.51,WeatherDisplay:10.37,2013-05-21 04:34:00,
2013-05-20 23:38:00,53.8,50.6,28.35,West,270,0.0,0.0,89,0.06,CLR,,0.51,WeatherDisplay:10.37,2013-05-21 04:38:00,
2013-05-20 23:39:00,53.8,50.6,28.35,West,270,0.0,0.0,89,0.06,CLR,,0.51,WeatherDisplay:10.37,2013-05-21 04:39:00,
2013-05-20 23:41:00,53.8,50.6,28.32,West,270,0.0,0.0,89,0.06,CLR,,0.51,WeatherDisplay:10.37,2013-05-21 04:41:00,
2013-05-20 23:43:00,53.6,50.4,28.32,West,270,0.0,0.0,89,0.06,CLR,,0.51,WeatherDisplay:10.37,2013-05-21 04:43:00,
2013-05-20 23:44:00,53.6,50.4,28.32,West,270,0.0,0.0,89,0.06,CLR,,0.51,WeatherDisplay:10.37,2013-05-21 04:44:00,
2013-05-20 23:45:00,53.6,50.4,28.32,West,264,0.0,0.0,89,0.00,CLR,,0.51,WeatherDisplay:10.37,2013-05-21 04:45:00,
2013-05-20 23:46:00,53.6,50.4,28.32,West,270,0.0,0.0,89,0.05,CLR,,0.51,WeatherDisplay:10.37,2013-05-21 04:46:00,
2013-05-20 23:49:00,53.6,50.4,28.32,NNW,338,0.9,0.0,89,0.05,CLR,,0.51,WeatherDisplay:10.37,2013-05-21 04:49:00,
2013-05-20 23:50:00,53.6,50.4,28.32,NW,315,1.2,0.0,89,0.04,CLR,,0.51,WeatherDisplay:10.37,2013-05-21 04:50:00,
2013-05-20 23:52:00,53.4,50.3,28.32,NW,315,0.0,0.0,89,0.02,CLR,,0.51,WeatherDisplay:10.37,2013-05-21 04:52:00,
2013-05-20 23:54:00,53.4,50.3,28.32,NW,315,0.0,0.0,89,0.02,CLR,,0.51,WeatherDisplay:10.37,2013-05-21 04:54:00,
2013-05-20 23:55:00,53.4,50.3,28.32,NW,311,0.0,0.0,89,0.00,CLR,,0.51,WeatherDisplay:10.37,2013-05-21 04:55:00,
2013-05-20 23:56:00,53.4,50.6,28.32,NW,315,0.0,0.0,90,0.02,CLR,,0.51,WeatherDisplay:10.37,2013-05-21 04:56:00,
2013-05-20 23:57:00,53.4,50.6,28.32,NW,315,0.0,0.0,90,0.02,CLR,,0.51,WeatherDisplay:10.37,2013-05-21 04:57:00,
2013-05-20 23:59:00,53.6,50.7,28.32,NW,315,0.0,0.0,90,0.02,CLR,,0.51,WeatherDisplay:10.37,2013-05-21 04:59:00,